Wetterdaten: Freitag, 25.08.2017
Datum Zeit Temp. Aussen Temp. o. S. +5cm Feuchte Auss BlattFeu 1 Luftdruck Regen Sonnenschein Regendauer Solar Windben Empfang
25.08.2017 00:00 17,1 C 15,0 C 13,3 C 81 % 0 lf 1017,3 hPa 0,0 l/m 0 min 0 min 0 W/m 0,0 km/h (0 Bft) 95,65 %
25.08.2017 00:02 17,0 C 15,0 C 13,3 C 81 % 0 lf 1017,3 hPa 0,0 l/m 0 min 0 min 0 W/m 0,0 km/h (0 Bft) 100,00 %
25.08.2017 00:04 16,9 C 14,4 C 13,3 C 81 % 0 lf 1017,3 hPa 0,0 l/m 0 min 0 min 0 W/m 0,0 km/h (0 Bft) 95,74 %
25.08.2017 00:08 16,9 C 14,4 C 13,3 C 81 % 0 lf 1017,3 hPa 0,0 l/m 0 min 0 min 2 W/m 0,0 km/h (0 Bft) 94,00 %
25.08.2017 00:10 16,8 C 14,4 C 13,3 C 81 % 0 lf 1017,3 hPa 0,0 l/m 0 min 0 min 5 W/m 0,0 km/h (0 Bft) 97,87 %
25.08.2017 00:12 16,8 C 14,4 C 13,3 C 82 % 0 lf 1017,3 hPa 0,0 l/m 0 min 0 min 4 W/m 0,0 km/h (0 Bft) 87,23 %
25.08.2017 00:14 16,8 C 14,4 C 13,3 C 82 % 0 lf 1017,3 hPa 0,0 l/m 0 min 0 min 2 W/m 0,0 km/h (0 Bft) 91,49 %
25.08.2017 00:16 16,7 C 14,4 C 13,3 C 82 % 0 lf 1017,3 hPa 0,0 l/m 0 min 0 min 0 W/m 0,0 km/h (0 Bft) 91,30 %
25.08.2017 00:18 16,7 C 14,4 C 13,3 C 82 % 0 lf 1017,4 hPa 0,0 l/m 0 min 0 min 0 W/m 0,0 km/h (0 Bft) 91,49 %
25.08.2017 00:20 16,6 C 14,4 C 13,3 C 82 % 0 lf 1017,3 hPa 0,0 l/m 0 min 0 min 0 W/m 0,0 km/h (0 Bft) 91,49 %
25.08.2017 00:22 16,6 C 14,4 C 13,3 C 82 % 0 lf 1017,3 hPa 0,0 l/m 0 min 0 min 0 W/m 0,0 km/h (0 Bft) 89,36 %
25.08.2017 00:24 16,6 C 14,4 C 13,3 C 82 % 0 lf 1017,3 hPa 0,0 l/m 0 min 0 min 0 W/m 0,0 km/h (0 Bft) 89,36 %
25.08.2017 00:26 16,5 C 14,4 C 13,3 C 82 % 0 lf 1017,3 hPa 0,0 l/m 0 min 0 min 5 W/m 0,0 km/h (0 Bft) 91,49 %
25.08.2017 00:28 16,5 C 14,4 C 13,3 C 82 % 0 lf 1017,3 hPa 0,0 l/m 0 min 0 min 5 W/m 0,0 km/h (0 Bft) 93,48 %
25.08.2017 00:30 16,4 C 14,4 C 13,3 C 83 % 0 lf 1017,3 hPa 0,0 l/m 0 min 0 min 0 W/m 0,0 km/h (0 Bft) 89,36 %
25.08.2017 00:32 16,4 C 14,4 C 13,3 C 83 % 0 lf 1017,3 hPa 0,0 l/m 0 min 0 min 5 W/m 0,0 km/h (0 Bft) 93,62 %
25.08.2017 00:34 16,3 C 14,4 C 13,3 C 83 % 0 lf 1017,2 hPa 0,0 l/m 0 min 0 min 5 W/m 0,0 km/h (0 Bft) 93,62 %
25.08.2017 00:36 16,3 C 14,4 C 13,3 C 83 % 0 lf 1017,2 hPa 0,0 l/m 0 min 0 min 5 W/m 0,0 km/h (0 Bft) 95,74 %
25.08.2017 00:38 16,3 C 13,9 C 13,3 C 83 % 0 lf 1017,3 hPa 0,0 l/m 0 min 0 min 0 W/m 0,0 km/h (0 Bft) 91,49 %
25.08.2017 00:40 16,3 C 13,9 C 13,3 C 83 % 0 lf 1017,3 hPa 0,0 l/m 0 min 0 min 5 W/m 0,0 km/h (0 Bft) 91,30 %
25.08.2017 00:42 16,2 C 13,9 C 13,3 C 83 % 0 lf 1017,2 hPa 0,0 l/m 0 min 0 min 5 W/m 0,0 km/h (0 Bft) 91,49 %
25.08.2017 00:44 16,2 C 14,4 C 13,3 C 83 % 0 lf 1017,3 hPa 0,0 l/m 0 min 0 min 5 W/m 0,0 km/h (0 Bft) 93,62 %
25.08.2017 00:46 16,2 C 13,9 C 12,8 C 83 % 0 lf 1017,2 hPa 0,0 l/m 0 min 0 min 5 W/m 0,0 km/h (0 Bft) 93,62 %
25.08.2017 00:48 16,1 C 13,9 C 12,8 C 83 % 0 lf 1017,3 hPa 0,0 l/m 0 min 0 min 0 W/m 0,0 km/h (0 Bft) 87,23 %
25.08.2017 00:50 16,1 C 13,9 C 12,8 C 84 % 0 lf 1017,2 hPa 0,0 l/m 0 min 0 min 0 W/m 0,0 km/h (0 Bft) 93,62 %
25.08.2017 00:52 16,1 C 14,4 C 12,8 C 84 % 0 lf 1017,3 hPa 0,0 l/m 0 min 0 min 0 W/m 0,0 km/h (0 Bft) 93,48 %
25.08.2017 00:54 16,0 C 14,4 C 12,8 C 84 % 0 lf 1017,3 hPa 0,0 l/m 0 min 0 min 5 W/m 0,0 km/h (0 Bft) 91,49 %
25.08.2017 00:56 16,0 C 14,4 C 12,8 C 84 % 0 lf 1017,3 hPa 0,0 l/m 0 min 0 min 0 W/m 0,0 km/h (0 Bft) 93,62 %
25.08.2017 00:58 15,9 C 14,4 C 12,8 C 84 % 1 lf 1017,3 hPa 0,0 l/m 0 min 0 min 0 W/m 0,0 km/h (0 Bft) 95,74 %
25.08.2017 01:00 15,9 C 14,4 C 12,8 C 84 % 0 lf 1017,3 hPa 0,0 l/m 0 min 0 min 0 W/m 0,0 km/h (0 Bft) 95,74 %
25.08.2017 01:02 15,9 C 14,4 C 12,8 C 84 % 1 lf 1017,3 hPa 0,0 l/m 0 min 0 min 0 W/m 0,0 km/h (0 Bft) 95,65 %
25.08.2017 01:04 15,8 C 14,4 C 12,8 C 84 % 1 lf 1017,3 hPa 0,0 l/m 0 min 0 min 5 W/m 0,0 km/h (0 Bft) 95,74 %
25.08.2017 01:06 15,8 C 14,4 C 12,8 C 84 % 1 lf 1017,3 hPa 0,0 l/m 0 min 0 min 5 W/m 0,0 km/h (0 Bft) 100,00 %
25.08.2017 01:08 15,8 C 14,4 C 12,8 C 84 % 1 lf 1017,3 hPa 0,0 l/m 0 min 0 min 5 W/m 0,0 km/h (0 Bft) 100,00 %
25.08.2017 01:10 15,8 C 14,4 C 12,8 C 85 % 1 lf 1017,3 hPa 0,0 l/m 0 min 0 min 0 W/m 0,0 km/h (0 Bft) 100,00 %
25.08.2017 01:12 15,7 C 14,4 C 12,8 C 85 % 1 lf 1017,3 hPa 0,0 l/m 0 min 0 min 2 W/m 0,0 km/h (0 Bft) 89,36 %
25.08.2017 01:14 15,7 C 14,4 C 12,8 C 85 % 1 lf 1017,3 hPa 0,0 l/m 0 min 0 min 4 W/m 0,0 km/h (0 Bft) 100,00 %
25.08.2017 01:16 15,7 C 13,9 C 12,8 C 85 % 1 lf 1017,3 hPa 0,0 l/m 0 min 0 min 2 W/m 0,0 km/h (0 Bft) 100,00 %
25.08.2017 01:18 15,7 C 13,9 C 12,8 C 85 % 1 lf 1017,3 hPa 0,0 l/m 0 min 0 min 0 W/m 0,0 km/h (0 Bft) 100,00 %
25.08.2017 01:20 15,6 C 13,9 C 12,8 C 85 % 1 lf 1017,3 hPa 0,0 l/m 0 min 0 min 0 W/m 0,0 km/h (0 Bft) 100,00 %
25.08.2017 01:22 15,6 C 13,9 C 12,8 C 85 % 1 lf 1017,3 hPa 0,0 l/m 0 min 0 min 4 W/m 0,0 km/h (0 Bft) 100,00 %
25.08.2017 01:24 15,6 C 13,9 C 12,8 C 85 % 1 lf 1017,3 hPa 0,0 l/m 0 min 0 min 0 W/m 0,0 km/h (0 Bft) 100,00 %
25.08.2017 01:26 15,5 C 13,9 C 12,8 C 85 % 1 lf 1017,2 hPa 0,0 l/m 0 min 0 min 0 W/m 0,0 km/h (0 Bft) 100,00 %
25.08.2017 01:28 15,5 C 13,9 C 12,8 C 85 % 1 lf 1017,3 hPa 0,0 l/m 0 min 0 min 4 W/m 0,0 km/h (0 Bft) 100,00 %
25.08.2017 01:30 15,5 C 13,9 C 12,8 C 86 % 1 lf 1017,3 hPa 0,0 l/m 0 min 0 min 0 W/m 0,0 km/h (0 Bft) 95,74 %
25.08.2017 01:32 15,4 C 13,9 C 12,8 C 86 % 1 lf 1017,3 hPa 0,0 l/m 0 min 0 min 2 W/m 0,0 km/h (0 Bft) 100,00 %
25.08.2017 01:34 15,4 C 13,9 C 12,8 C 86 % 1 lf 1017,2 hPa 0,0 l/m 0 min 0 min 5 W/m 0,0 km/h (0 Bft) 100,00 %
25.08.2017 01:36 15,4 C 13,9 C 12,8 C 86 % 1 lf 1017,3 hPa 0,0 l/m 0 min 0 min 1 W/m 0,0 km/h (0 Bft) 100,00 %
25.08.2017 01:38 15,4 C 13,9 C 12,8 C 86 % 1 lf 1017,3 hPa 0,0 l/m 0 min 0 min 0 W/m 0,0 km/h (0 Bft) 100,00 %
25.08.2017 01:40 15,3 C 13,9 C 12,8 C 86 % 1 lf 1017,3 hPa 0,0 l/m 0 min 0 min 0 W/m 0,0 km/h (0 Bft) 100,00 %
25.08.2017 01:42 15,3 C 13,9 C 12,8 C 86 % 1 lf 1017,2 hPa 0,0 l/m 0 min 0 min 0 W/m 0,0 km/h (0 Bft) 97,87 %
25.08.2017 01:44 15,3 C 13,9 C 12,8 C 87 % 1 lf 1017,2 hPa 0,0 l/m 0 min 0 min 0 W/m 0,0 km/h (0 Bft) 100,00 %
25.08.2017 01:46 15,3 C 13,9 C 12,8 C 87 % 2 lf 1017,2 hPa 0,0 l/m 0 min 0 min 0 W/m 0,0 km/h (0 Bft) 97,87 %
25.08.2017 01:48 15,3 C 13,9 C 12,8 C 87 % 2 lf 1017,3 hPa 0,0 l/m 0 min 0 min 0 W/m 0,0 km/h (0 Bft) 100,00 %
25.08.2017 01:50 15,2 C 13,9 C 12,8 C 87 % 2 lf 1017,3 hPa 0,0 l/m 0 min 0 min 0 W/m 0,0 km/h (0 Bft) 97,83 %
25.08.2017 01:52 15,2 C 13,9 C 12,2 C 87 % 2 lf 1017,3 hPa 0,0 l/m 0 min 0 min 4 W/m 0,0 km/h (0 Bft) 96,00 %
25.08.2017 01:54 15,2 C 13,9 C 12,2 C 87 % 2 lf 1017,3 hPa 0,0 l/m 0 min 0 min 3 W/m 0,0 km/h (0 Bft) 97,87 %
25.08.2017 01:56 15,2 C 13,9 C 12,2 C 87 % 2 lf 1017,3 hPa 0,0 l/m 0 min 0 min 0 W/m 0,0 km/h (0 Bft) 97,87 %
25.08.2017 01:58 15,1 C 13,9 C 12,2 C 87 % 2 lf 1017,2 hPa 0,0 l/m 0 min 0 min 0 W/m 0,0 km/h (0 Bft) 97,87 %
25.08.2017 02:00 15,1 C 13,3 C 12,2 C 87 % 2 lf 1017,2 hPa 0,0 l/m 0 min 0 min 0 W/m 0,0 km/h (0 Bft) 97,83 %
25.08.2017 02:02 15,1 C 13,3 C 12,2 C 87 % 2 lf 1017,2 hPa 0,0 l/m 0 min 0 min 0 W/m 0,0 km/h (0 Bft) 97,87 %
25.08.2017 02:04 15,0 C 13,3 C 12,2 C 87 % 2 lf 1017,3 hPa 0,0 l/m 0 min 0 min 0 W/m 0,0 km/h (0 Bft) 97,87 %
25.08.2017 02:06 15,0 C 13,3 C 12,2 C 87 % 2 lf 1017,3 hPa 0,0 l/m 0 min 0 min 0 W/m 0,0 km/h (0 Bft) 97,87 %
25.08.2017 02:08 15,0 C 13,3 C 12,2 C 87 % 2 lf 1017,3 hPa 0,0 l/m 0 min 0 min 0 W/m 0,0 km/h (0 Bft) 97,87 %
25.08.2017 02:10 14,9 C 13,3 C 12,2 C 87 % 2 lf 1017,3 hPa 0,0 l/m 0 min 0 min 2 W/m 0,0 km/h (0 Bft) 97,87 %
25.08.2017 02:12 14,9 C 13,3 C 12,2 C 87 % 2 lf 1017,3 hPa 0,0 l/m 0 min 0 min 0 W/m 0,0 km/h (0 Bft) 97,83 %
25.08.2017 02:14 14,9 C 13,3 C 12,2 C 87 % 2 lf 1017,3 hPa 0,0 l/m 0 min 0 min 0 W/m 0,0 km/h (0 Bft) 97,87 %
25.08.2017 02:16 14,9 C 13,9 C 12,2 C 87 % 2 lf 1017,4 hPa 0,0 l/m 0 min 0 min 0 W/m 0,0 km/h (0 Bft) 91,49 %
25.08.2017 02:18 14,9 C 13,9 C 12,2 C 88 % 2 lf 1017,3 hPa 0,0 l/m 0 min 0 min 0 W/m 0,0 km/h (0 Bft) 95,74 %
25.08.2017 02:20 14,8 C 13,9 C 12,8 C 88 % 2 lf 1017,3 hPa 0,0 l/m 0 min 0 min 0 W/m 0,0 km/h (0 Bft) 95,74 %
25.08.2017 02:22 14,8 C 13,9 C 12,8 C 88 % 2 lf 1017,3 hPa 0,0 l/m 0 min 0 min 0 W/m 0,0 km/h (0 Bft) 100,00 %
25.08.2017 02:25 14,8 C 13,9 C 12,8 C 88 % 2 lf 1017,3 hPa 0,0 l/m 0 min 0 min 0 W/m 0,0 km/h (0 Bft) 100,00 %
25.08.2017 02:26 14,8 C 13,9 C 12,8 C 88 % 2 lf 1017,3 hPa 0,0 l/m 0 min 0 min 5 W/m 0,0 km/h (0 Bft) 100,00 %
25.08.2017 02:30 14,7 C 13,9 C 12,8 C 88 % 2 lf 1017,2 hPa 0,0 l/m 0 min 0 min 1 W/m 0,0 km/h (0 Bft) 100,00 %
25.08.2017 02:31 14,7 C 13,9 C 12,2 C 89 % 2 lf 1017,3 hPa 0,0 l/m 0 min 0 min 0 W/m 0,0 km/h (0 Bft) 100,00 %
25.08.2017 02:34 14,7 C 13,9 C 12,2 C 89 % 2 lf 1017,4 hPa 0,0 l/m 0 min 0 min 0 W/m 0,0 km/h (0 Bft) 96,15 %
25.08.2017 02:36 14,7 C 13,9 C 12,2 C 89 % 2 lf 1017,3 hPa 0,0 l/m 0 min 0 min 0 W/m 0,0 km/h (0 Bft) 96,36 %
25.08.2017 02:38 14,7 C 13,3 C 12,2 C 89 % 2 lf 1017,4 hPa 0,0 l/m 0 min 0 min 0 W/m 0,0 km/h (0 Bft) 100,00 %
25.08.2017 02:40 14,7 C 13,3 C 12,2 C 89 % 3 lf 1017,4 hPa 0,0 l/m 0 min 0 min 0 W/m 0,0 km/h (0 Bft) 100,00 %
25.08.2017 02:42 14,7 C 13,3 C 12,2 C 89 % 3 lf 1017,4 hPa 0,0 l/m 0 min 0 min 0 W/m 0,0 km/h (0 Bft) 100,00 %
25.08.2017 02:44 14,6 C 13,3 C 12,2 C 89 % 3 lf 1017,5 hPa 0,0 l/m 0 min 0 min 0 W/m 0,0 km/h (0 Bft) 97,83 %
25.08.2017 02:46 14,6 C 13,3 C 12,2 C 89 % 3 lf 1017,4 hPa 0,0 l/m 0 min 0 min 0 W/m 0,0 km/h (0 Bft) 100,00 %
25.08.2017 02:48 14,6 C 13,3 C 12,2 C 89 % 3 lf 1017,4 hPa 0,0 l/m 0 min 0 min 0 W/m 0,0 km/h (0 Bft) 97,87 %
25.08.2017 02:50 14,6 C 13,3 C 12,2 C 89 % 3 lf 1017,4 hPa 0,0 l/m 0 min 0 min 0 W/m 0,0 km/h (0 Bft) 100,00 %
25.08.2017 02:52 14,5 C 13,3 C 12,2 C 89 % 3 lf 1017,4 hPa 0,0 l/m 0 min 0 min 0 W/m 0,0 km/h (0 Bft) 97,87 %
25.08.2017 02:54 14,5 C 13,3 C 12,2 C 89 % 3 lf 1017,4 hPa 0,0 l/m 0 min 0 min 2 W/m 0,0 km/h (0 Bft) 97,87 %
25.08.2017 02:56 14,4 C 13,3 C 12,2 C 89 % 3 lf 1017,4 hPa 0,0 l/m 0 min 0 min 0 W/m 0,0 km/h (0 Bft) 97,83 %
25.08.2017 02:58 14,4 C 13,3 C 12,2 C 89 % 3 lf 1017,5 hPa 0,0 l/m 0 min 0 min 0 W/m 0,0 km/h (0 Bft) 97,87 %
25.08.2017 03:00 14,4 C 13,3 C 12,2 C 89 % 3 lf 1017,4 hPa 0,0 l/m 0 min 0 min 0 W/m 0,0 km/h (0 Bft) 93,62 %
25.08.2017 03:02 14,4 C 12,8 C 11,7 C 89 % 4 lf 1017,4 hPa 0,0 l/m 0 min 0 min 0 W/m 0,0 km/h (0 Bft) 97,87 %
25.08.2017 03:04 14,4 C 12,8 C 11,7 C 89 % 4 lf 1017,4 hPa 0,0 l/m 0 min 0 min 0 W/m 0,0 km/h (0 Bft) 95,74 %
25.08.2017 03:06 14,3 C 13,3 C 11,7 C 89 % 4 lf 1017,4 hPa 0,0 l/m 0 min 0 min 0 W/m 0,0 km/h (0 Bft) 97,87 %
25.08.2017 03:08 14,3 C 12,8 C 11,7 C 89 % 4 lf 1017,5 hPa 0,0 l/m 0 min 0 min 0 W/m 0,0 km/h (0 Bft) 97,83 %
25.08.2017 03:10 14,3 C 12,8 C 11,7 C 89 % 4 lf 1017,4 hPa 0,0 l/m 0 min 0 min 0 W/m 0,0 km/h (0 Bft) 97,87 %
25.08.2017 03:12 14,2 C 12,8 C 11,7 C 89 % 4 lf 1017,6 hPa 0,0 l/m 0 min 0 min 0 W/m 0,0 km/h (0 Bft) 95,74 %
25.08.2017 03:14 14,2 C 12,8 C 11,7 C 89 % 4 lf 1017,6 hPa 0,0 l/m 0 min 0 min 0 W/m 0,0 km/h (0 Bft) 93,62 %
25.08.2017 03:16 14,2 C 12,8 C 11,7 C 89 % 4 lf 1017,6 hPa 0,0 l/m 0 min 0 min 0 W/m 0,0 km/h (0 Bft) 95,74 %
25.08.2017 03:18 14,2 C 12,8 C 11,7 C 89 % 4 lf 1017,6 hPa 0,0 l/m 0 min 0 min 0 W/m 0,0 km/h (0 Bft) 93,62 %
25.08.2017 03:20 14,2 C 12,8 C 12,2 C 89 % 4 lf 1017,5 hPa 0,0 l/m 0 min 0 min 0 W/m 0,0 km/h (0 Bft) 91,30 %
25.08.2017 03:22 14,2 C 13,3 C 12,2 C 89 % 4 lf 1017,6 hPa 0,0 l/m 0 min 0 min 0 W/m 0,0 km/h (0 Bft) 89,36 %
25.08.2017 03:24 14,2 C 13,3 C 12,2 C 89 % 4 lf 1017,6 hPa 0,0 l/m 0 min 0 min 0 W/m 0,0 km/h (0 Bft) 95,74 %
25.08.2017 03:26 14,2 C 13,3 C 12,2 C 89 % 3 lf 1017,5 hPa 0,0 l/m 0 min 0 min 0 W/m 0,0 km/h (0 Bft) 95,74 %
25.08.2017 03:28 14,2 C 13,3 C 12,2 C 89 % 3 lf 1017,5 hPa 0,0 l/m 0 min 0 min 0 W/m 0,0 km/h (0 Bft) 93,62 %
25.08.2017 03:30 14,2 C 13,3 C 12,2 C 90 % 3 lf 1017,5 hPa 0,0 l/m 0 min 0 min 0 W/m 0,0 km/h (0 Bft) 93,62 %
25.08.2017 03:32 14,2 C 13,3 C 12,2 C 90 % 3 lf 1017,5 hPa 0,0 l/m 0 min 0 min 0 W/m 0,0 km/h (0 Bft) 95,65 %
25.08.2017 03:34 14,2 C 13,3 C 12,2 C 90 % 3 lf 1017,5 hPa 0,0 l/m 0 min 0 min 0 W/m 0,0 km/h (0 Bft) 93,62 %
25.08.2017 03:36 14,2 C 13,3 C 12,2 C 90 % 3 lf 1017,6 hPa 0,0 l/m 0 min 0 min 0 W/m 0,0 km/h (0 Bft) 93,62 %
25.08.2017 03:38 14,1 C 13,3 C 12,2 C 90 % 3 lf 1017,6 hPa 0,0 l/m 0 min 0 min 0 W/m 0,0 km/h (0 Bft) 93,62 %
25.08.2017 03:40 14,1 C 13,3 C 12,2 C 90 % 3 lf 1017,5 hPa 0,0 l/m 0 min 0 min 0 W/m 0,0 km/h (0 Bft) 93,62 %
25.08.2017 03:42 14,1 C 13,3 C 12,2 C 90 % 3 lf 1017,6 hPa 0,0 l/m 0 min 0 min 0 W/m 0,0 km/h (0 Bft) 93,48 %
25.08.2017 03:44 14,1 C 13,3 C 12,2 C 90 % 3 lf 1017,6 hPa 0,0 l/m 0 min 0 min 0 W/m 0,0 km/h (0 Bft) 95,74 %
25.08.2017 03:46 14,1 C 13,3 C 12,2 C 90 % 2 lf 1017,6 hPa 0,0 l/m 0 min 0 min 0 W/m 0,0 km/h (0 Bft) 97,87 %
25.08.2017 03:48 14,1 C 13,3 C 12,2 C 90 % 2 lf 1017,6 hPa 0,0 l/m 0 min 0 min 0 W/m 0,0 km/h (0 Bft) 95,74 %
25.08.2017 03:50 14,1 C 13,3 C 12,2 C 90 % 2 lf 1017,5 hPa 0,0 l/m 0 min 0 min 0 W/m 0,0 km/h (0 Bft) 93,62 %
25.08.2017 03:52 14,1 C 13,3 C 12,2 C 90 % 2 lf 1017,6 hPa 0,0 l/m 0 min 0 min 0 W/m 0,0 km/h (0 Bft) 91,49 %
25.08.2017 03:54 14,0 C 13,3 C 12,8 C 90 % 2 lf 1017,6 hPa 0,0 l/m 0 min 0 min 0 W/m 0,0 km/h (0 Bft) 93,48 %
25.08.2017 03:56 14,1 C 13,3 C 12,8 C 91 % 2 lf 1017,5 hPa 0,0 l/m 0 min 0 min 0 W/m 0,0 km/h (0 Bft) 91,49 %
25.08.2017 03:58 14,1 C 13,3 C 12,8 C 91 % 2 lf 1017,5 hPa 0,0 l/m 0 min 0 min 0 W/m 0,0 km/h (0 Bft) 93,62 %
25.08.2017 04:00 14,0 C 13,3 C 12,8 C 91 % 2 lf 1017,5 hPa 0,0 l/m 0 min 0 min 0 W/m 0,0 km/h (0 Bft) 95,74 %
25.08.2017 04:02 14,1 C 13,3 C 12,8 C 91 % 2 lf 1017,5 hPa 0,0 l/m 0 min 0 min 0 W/m 0,0 km/h (0 Bft) 94,74 %
25.08.2017 04:04 14,1 C 13,3 C 12,8 C 91 % 2 lf 1017,5 hPa 0,0 l/m 0 min 0 min 0 W/m 0,0 km/h (0 Bft) 100,00 %
25.08.2017 04:06 14,1 C 13,3 C 12,8 C 91 % 2 lf 1017,5 hPa 0,0 l/m 0 min 0 min 0 W/m 0,0 km/h (0 Bft) 95,65 %
25.08.2017 04:08 14,1 C 13,3 C 12,8 C 91 % 2 lf 1017,5 hPa 0,0 l/m 0 min 0 min 0 W/m 0,0 km/h (0 Bft) 93,62 %
25.08.2017 04:10 14,1 C 13,9 C 12,8 C 91 % 2 lf 1017,5 hPa 0,0 l/m 0 min 0 min 0 W/m 0,0 km/h (0 Bft) 91,49 %
25.08.2017 04:12 14,1 C 13,9 C 12,8 C 91 % 2 lf 1017,5 hPa 0,0 l/m 0 min 0 min 0 W/m 0,0 km/h (0 Bft) 93,62 %
25.08.2017 04:14 14,1 C 13,3 C 12,8 C 91 % 2 lf 1017,5 hPa 0,0 l/m 0 min 0 min 0 W/m 0,0 km/h (0 Bft) 95,74 %
25.08.2017 04:16 14,1 C 13,3 C 12,8 C 91 % 2 lf 1017,5 hPa 0,0 l/m 0 min 0 min 0 W/m 0,0 km/h (0 Bft) 97,87 %
25.08.2017 04:18 14,1 C 13,3 C 12,8 C 92 % 2 lf 1017,5 hPa 0,0 l/m 0 min 0 min 0 W/m 0,0 km/h (0 Bft) 97,83 %
25.08.2017 04:20 14,1 C 13,3 C 12,8 C 92 % 2 lf 1017,5 hPa 0,0 l/m 0 min 0 min 0 W/m 0,0 km/h (0 Bft) 97,87 %
25.08.2017 04:22 14,1 C 13,3 C 12,8 C 92 % 2 lf 1017,5 hPa 0,0 l/m 0 min 0 min 0 W/m 0,0 km/h (0 Bft) 93,62 %
25.08.2017 04:24 14,1 C 13,3 C 12,8 C 92 % 2 lf 1017,5 hPa 0,0 l/m 0 min 0 min 0 W/m 0,0 km/h (0 Bft) 95,74 %
25.08.2017 04:26 14,1 C 13,3 C 12,8 C 92 % 2 lf 1017,5 hPa 0,0 l/m 0 min 0 min 0 W/m 0,0 km/h (0 Bft) 93,62 %
25.08.2017 04:28 14,1 C 13,3 C 12,8 C 92 % 2 lf 1017,5 hPa 0,0 l/m 0 min 0 min 0 W/m 0,0 km/h (0 Bft) 97,87 %
25.08.2017 04:30 14,1 C 13,3 C 12,8 C 92 % 2 lf 1017,5 hPa 0,0 l/m 0 min 0 min 0 W/m 0,0 km/h (0 Bft) 97,83 %
25.08.2017 04:32 14,1 C 13,3 C 12,8 C 92 % 2 lf 1017,4 hPa 0,0 l/m 0 min 0 min 0 W/m 0,0 km/h (0 Bft) 95,74 %
25.08.2017 04:34 14,1 C 13,3 C 12,8 C 92 % 2 lf 1017,4 hPa 0,0 l/m 0 min 0 min 0 W/m 0,0 km/h (0 Bft) 97,87 %
25.08.2017 04:36 14,1 C 13,3 C 12,8 C 92 % 2 lf 1017,4 hPa 0,0 l/m 0 min 0 min 0 W/m 0,0 km/h (0 Bft) 97,87 %
25.08.2017 04:38 14,1 C 13,3 C 12,8 C 92 % 2 lf 1017,5 hPa 0,0 l/m 0 min 0 min 0 W/m 0,0 km/h (0 Bft) 97,87 %
25.08.2017 04:40 14,1 C 13,3 C 12,8 C 92 % 2 lf 1017,4 hPa 0,0 l/m 0 min 0 min 0 W/m 0,0 km/h (0 Bft) 97,87 %
25.08.2017 04:42 14,1 C 13,3 C 12,8 C 92 % 2 lf 1017,5 hPa 0,0 l/m 0 min 0 min 0 W/m 0,0 km/h (0 Bft) 97,83 %
25.08.2017 04:44 14,1 C 13,3 C 12,8 C 92 % 2 lf 1017,5 hPa 0,0 l/m 0 min 0 min 0 W/m 0,0 km/h (0 Bft) 97,87 %
25.08.2017 04:46 14,1 C 13,3 C 12,8 C 92 % 2 lf 1017,5 hPa 0,0 l/m 0 min 0 min 0 W/m 0,0 km/h (0 Bft) 97,87 %
25.08.2017 04:48 14,1 C 13,3 C 12,8 C 92 % 2 lf 1017,5 hPa 0,0 l/m 0 min 0 min 0 W/m 0,0 km/h (0 Bft) 97,87 %
25.08.2017 04:50 14,1 C 13,3 C 12,8 C 92 % 2 lf 1017,4 hPa 0,0 l/m 0 min 0 min 0 W/m 0,0 km/h (0 Bft) 95,74 %
25.08.2017 04:52 14,1 C 13,3 C 12,2 C 92 % 2 lf 1017,4 hPa 0,0 l/m 0 min 0 min 0 W/m 0,0 km/h (0 Bft) 96,23 %
25.08.2017 04:54 14,1 C 13,3 C 12,2 C 92 % 2 lf 1017,4 hPa 0,0 l/m 0 min 0 min 0 W/m 0,0 km/h (0 Bft) 97,87 %
25.08.2017 04:56 14,1 C 13,3 C 12,2 C 92 % 2 lf 1017,4 hPa 0,0 l/m 0 min 0 min 0 W/m 0,0 km/h (0 Bft) 97,87 %
25.08.2017 04:58 14,1 C 13,3 C 12,2 C 92 % 2 lf 1017,4 hPa 0,0 l/m 0 min 0 min 0 W/m 0,0 km/h (0 Bft) 95,65 %
25.08.2017 05:00 14,1 C 13,3 C 12,2 C 92 % 2 lf 1017,4 hPa 0,0 l/m 0 min 0 min 0 W/m 0,0 km/h (0 Bft) 100,00 %
25.08.2017 05:02 14,1 C 13,3 C 12,2 C 92 % 2 lf 1017,3 hPa 0,0 l/m 0 min 0 min 0 W/m 0,0 km/h (0 Bft) 97,87 %
25.08.2017 05:04 14,1 C 13,3 C 12,2 C 92 % 2 lf 1017,3 hPa 0,0 l/m 0 min 0 min 0 W/m 0,0 km/h (0 Bft) 100,00 %
25.08.2017 05:06 14,1 C 13,3 C 12,2 C 92 % 2 lf 1017,3 hPa 0,0 l/m 0 min 0 min 0 W/m 0,0 km/h (0 Bft) 97,87 %
25.08.2017 05:08 14,1 C 13,3 C 12,2 C 92 % 2 lf 1017,3 hPa 0,0 l/m 0 min 0 min 0 W/m 0,0 km/h (0 Bft) 100,00 %
25.08.2017 05:10 14,1 C 13,3 C 12,2 C 92 % 2 lf 1017,3 hPa 0,0 l/m 0 min 0 min 0 W/m 0,0 km/h (0 Bft) 100,00 %
25.08.2017 05:12 14,1 C 13,3 C 12,2 C 93 % 3 lf 1017,3 hPa 0,0 l/m 0 min 0 min 0 W/m 0,0 km/h (0 Bft) 100,00 %
25.08.2017 05:14 14,0 C 13,3 C 12,2 C 93 % 3 lf 1017,3 hPa 0,0 l/m 0 min 0 min 0 W/m 0,0 km/h (0 Bft) 97,87 %
25.08.2017 05:16 14,0 C 13,3 C 12,2 C 93 % 3 lf 1017,2 hPa 0,0 l/m 0 min 0 min 0 W/m 0,0 km/h (0 Bft) 100,00 %
25.08.2017 05:18 14,0 C 13,3 C 12,2 C 93 % 3 lf 1017,2 hPa 0,0 l/m 0 min 0 min 0 W/m 0,0 km/h (0 Bft) 100,00 %
25.08.2017 05:20 14,0 C 12,8 C 11,7 C 93 % 3 lf 1017,2 hPa 0,0 l/m 0 min 0 min 0 W/m 0,0 km/h (0 Bft) 97,83 %
25.08.2017 05:22 14,0 C 12,8 C 11,7 C 93 % 3 lf 1017,1 hPa 0,0 l/m 0 min 0 min 0 W/m 0,0 km/h (0 Bft) 100,00 %
25.08.2017 05:24 14,0 C 12,8 C 11,7 C 93 % 3 lf 1017,2 hPa 0,0 l/m 0 min 0 min 0 W/m 0,0 km/h (0 Bft) 97,87 %
25.08.2017 05:26 13,9 C 12,8 C 11,7 C 93 % 3 lf 1017,2 hPa 0,0 l/m 0 min 0 min 0 W/m 0,0 km/h (0 Bft) 97,87 %
25.08.2017 05:28 13,9 C 12,8 C 11,7 C 92 % 4 lf 1017,2 hPa 0,0 l/m 0 min 0 min 0 W/m 0,0 km/h (0 Bft) 100,00 %
25.08.2017 05:30 13,9 C 12,2 C 11,7 C 93 % 4 lf 1017,2 hPa 0,0 l/m 0 min 0 min 0 W/m 0,0 km/h (0 Bft) 97,87 %
25.08.2017 05:32 13,9 C 12,2 C 11,7 C 93 % 4 lf 1017,1 hPa 0,0 l/m 0 min 0 min 0 W/m 0,0 km/h (0 Bft) 95,65 %
25.08.2017 05:34 13,9 C 12,2 C 11,7 C 93 % 4 lf 1017,1 hPa 0,0 l/m 0 min 0 min 0 W/m 0,0 km/h (0 Bft) 97,87 %
25.08.2017 05:36 13,8 C 12,2 C 11,7 C 93 % 4 lf 1017,1 hPa 0,0 l/m 0 min 0 min 0 W/m 0,0 km/h (0 Bft) 95,74 %
25.08.2017 05:38 13,8 C 12,2 C 11,7 C 93 % 4 lf 1017,1 hPa 0,0 l/m 0 min 0 min 0 W/m 0,0 km/h (0 Bft) 93,62 %
25.08.2017 05:40 13,8 C 12,2 C 11,7 C 93 % 4 lf 1017,1 hPa 0,0 l/m 0 min 0 min 0 W/m 0,0 km/h (0 Bft) 97,87 %
25.08.2017 05:42 13,8 C 12,2 C 11,7 C 93 % 4 lf 1017,1 hPa 0,0 l/m 0 min 0 min 0 W/m 0,0 km/h (0 Bft) 95,65 %
25.08.2017 05:44 13,8 C 12,2 C 11,7 C 93 % 4 lf 1017,1 hPa 0,0 l/m 0 min 0 min 0 W/m 0,0 km/h (0 Bft) 95,74 %
25.08.2017 05:46 13,8 C 12,2 C 11,7 C 93 % 4 lf 1017,1 hPa 0,0 l/m 0 min 0 min 0 W/m 0,0 km/h (0 Bft) 95,74 %
25.08.2017 05:48 13,8 C 12,2 C 11,7 C 93 % 3 lf 1017,1 hPa 0,0 l/m 0 min 0 min 0 W/m 0,0 km/h (0 Bft) 95,74 %
25.08.2017 05:50 13,8 C 12,2 C 11,7 C 93 % 3 lf 1017,2 hPa 0,0 l/m 0 min 0 min 0 W/m 0,0 km/h (0 Bft) 97,87 %
25.08.2017 05:52 13,8 C 12,2 C 11,7 C 93 % 3 lf 1017,4 hPa 0,0 l/m 0 min 0 min 0 W/m 0,0 km/h (0 Bft) 91,49 %
25.08.2017 05:54 13,7 C 12,2 C 11,7 C 93 % 4 lf 1017,4 hPa 0,0 l/m 0 min 0 min 0 W/m 0,0 km/h (0 Bft) 95,65 %
25.08.2017 05:56 13,7 C 12,2 C 11,7 C 93 % 4 lf 1017,5 hPa 0,0 l/m 0 min 0 min 0 W/m 0,0 km/h (0 Bft) 95,74 %
25.08.2017 05:58 13,7 C 12,2 C 11,7 C 93 % 4 lf 1017,5 hPa 0,0 l/m 0 min 0 min 0 W/m 0,0 km/h (0 Bft) 95,74 %
25.08.2017 06:00 13,7 C 12,2 C 11,7 C 93 % 3 lf 1017,4 hPa 0,0 l/m 0 min 0 min 0 W/m 0,0 km/h (0 Bft) 93,62 %
25.08.2017 06:02 13,7 C 12,2 C 11,7 C 93 % 3 lf 1017,4 hPa 0,0 l/m 0 min 0 min 0 W/m 0,0 km/h (0 Bft) 95,74 %
25.08.2017 06:04 13,7 C 12,2 C 11,7 C 93 % 3 lf 1017,3 hPa 0,0 l/m 0 min 0 min 0 W/m 0,0 km/h (0 Bft) 93,62 %
25.08.2017 06:08 13,7 C 12,2 C 11,7 C 93 % 3 lf 1017,5 hPa 0,0 l/m 0 min 0 min 0 W/m 0,0 km/h (0 Bft) 92,86 %
25.08.2017 06:10 13,6 C 12,2 C 11,7 C 93 % 3 lf 1017,4 hPa 0,0 l/m 0 min 0 min 0 W/m 0,0 km/h (0 Bft) 95,74 %
25.08.2017 06:12 13,6 C 12,2 C 11,7 C 93 % 3 lf 1017,4 hPa 0,0 l/m 0 min 0 min 0 W/m 0,0 km/h (0 Bft) 93,62 %
25.08.2017 06:14 13,6 C 12,2 C 11,7 C 93 % 3 lf 1017,4 hPa 0,0 l/m 0 min 0 min 0 W/m 0,0 km/h (0 Bft) 91,49 %
25.08.2017 06:16 13,6 C 12,2 C 11,7 C 93 % 3 lf 1017,5 hPa 0,0 l/m 0 min 0 min 0 W/m 0,0 km/h (0 Bft) 95,65 %
25.08.2017 06:18 13,6 C 12,2 C 11,7 C 93 % 3 lf 1017,4 hPa 0,0 l/m 0 min 0 min 0 W/m 0,0 km/h (0 Bft) 95,74 %
25.08.2017 06:20 13,6 C 12,2 C 11,7 C 93 % 3 lf 1017,4 hPa 0,0 l/m 0 min 0 min 0 W/m 0,0 km/h (0 Bft) 96,61 %
25.08.2017 06:22 13,6 C 12,2 C 11,7 C 93 % 3 lf 1017,4 hPa 0,0 l/m 0 min 0 min 0 W/m 0,0 km/h (0 Bft) 94,29 %
25.08.2017 06:24 13,6 C 12,2 C 11,7 C 93 % 2 lf 1017,4 hPa 0,0 l/m 0 min 0 min 0 W/m 0,0 km/h (0 Bft) 93,62 %
25.08.2017 06:26 13,6 C 12,2 C 11,7 C 93 % 2 lf 1017,4 hPa 0,0 l/m 0 min 0 min 0 W/m 0,0 km/h (0 Bft) 89,13 %
25.08.2017 06:28 13,6 C 12,2 C 11,7 C 93 % 2 lf 1017,4 hPa 0,0 l/m 0 min 0 min 0 W/m 0,0 km/h (0 Bft) 95,74 %
25.08.2017 06:30 13,6 C 12,2 C 11,7 C 93 % 2 lf 1017,4 hPa 0,0 l/m 0 min 0 min 0 W/m 0,0 km/h (0 Bft) 97,87 %
25.08.2017 06:32 13,5 C 12,2 C 11,7 C 93 % 2 lf 1017,4 hPa 0,0 l/m 0 min 0 min 0 W/m 0,0 km/h (0 Bft) 93,62 %
25.08.2017 06:34 13,5 C 12,2 C 11,7 C 94 % 2 lf 1017,4 hPa 0,0 l/m 0 min 0 min 1 W/m 0,0 km/h (0 Bft) 97,87 %
25.08.2017 06:36 13,5 C 12,2 C 11,7 C 94 % 2 lf 1017,5 hPa 0,0 l/m 0 min 0 min 5 W/m 0,0 km/h (0 Bft) 97,87 %
25.08.2017 06:38 13,5 C 12,2 C 11,7 C 94 % 3 lf 1017,5 hPa 0,0 l/m 0 min 0 min 5 W/m 0,0 km/h (0 Bft) 97,83 %
25.08.2017 06:40 13,5 C 12,2 C 11,7 C 94 % 3 lf 1017,4 hPa 0,0 l/m 0 min 0 min 5 W/m 0,0 km/h (0 Bft) 97,87 %
25.08.2017 06:42 13,4 C 12,2 C 11,7 C 93 % 3 lf 1017,5 hPa 0,0 l/m 0 min 0 min 7 W/m 0,0 km/h (0 Bft) 95,74 %
25.08.2017 06:44 13,4 C 12,2 C 11,7 C 93 % 3 lf 1017,4 hPa 0,0 l/m 0 min 0 min 7 W/m 0,0 km/h (0 Bft) 97,87 %
25.08.2017 06:46 13,4 C 12,2 C 11,7 C 93 % 3 lf 1017,4 hPa 0,0 l/m 0 min 0 min 9 W/m 0,0 km/h (0 Bft) 97,87 %
25.08.2017 06:48 13,4 C 12,2 C 11,7 C 93 % 3 lf 1017,4 hPa 0,0 l/m 0 min 0 min 11 W/m 2,1 km/h (1 Bft) 95,74 %
25.08.2017 06:50 13,4 C 12,8 C 11,7 C 93 % 3 lf 1017,5 hPa 0,0 l/m 0 min 0 min 12 W/m 4,2 km/h (1 Bft) 98,28 %
25.08.2017 06:52 13,4 C 12,8 C 11,7 C 93 % 3 lf 1017,6 hPa 0,0 l/m 0 min 0 min 14 W/m 4,2 km/h (1 Bft) 97,14 %
25.08.2017 06:54 13,4 C 12,8 C 11,7 C 93 % 3 lf 1017,6 hPa 0,0 l/m 0 min 0 min 18 W/m 4,2 km/h (1 Bft) 95,74 %
25.08.2017 06:56 13,4 C 12,8 C 11,7 C 93 % 3 lf 1017,6 hPa 0,0 l/m 2 min 0 min 20 W/m 4,2 km/h (1 Bft) 97,87 %
25.08.2017 06:58 13,3 C 12,8 C 11,7 C 93 % 3 lf 1017,6 hPa 0,0 l/m 2 min 0 min 21 W/m 4,2 km/h (1 Bft) 100,00 %
25.08.2017 07:00 13,3 C 12,8 C 11,7 C 93 % 3 lf 1017,6 hPa 0,0 l/m 0 min 0 min 23 W/m 4,2 km/h (1 Bft) 95,74 %
25.08.2017 07:02 13,3 C 12,8 C 11,7 C 93 % 3 lf 1017,5 hPa 0,0 l/m 0 min 0 min 25 W/m 4,2 km/h (1 Bft) 96,00 %
25.08.2017 07:04 13,3 C 13,3 C 12,2 C 94 % 3 lf 1017,5 hPa 0,0 l/m 0 min 0 min 27 W/m 4,2 km/h (1 Bft) 100,00 %
25.08.2017 07:06 13,3 C 13,3 C 12,2 C 94 % 3 lf 1017,6 hPa 0,0 l/m 0 min 0 min 28 W/m 2,1 km/h (1 Bft) 97,87 %
25.08.2017 07:08 13,3 C 13,3 C 12,2 C 94 % 2 lf 1017,6 hPa 0,0 l/m 0 min 0 min 28 W/m 6,3 km/h (2 Bft) 100,00 %
25.08.2017 07:10 13,3 C 13,3 C 12,2 C 94 % 2 lf 1017,6 hPa 0,0 l/m 0 min 0 min 30 W/m 4,2 km/h (1 Bft) 100,00 %
25.08.2017 07:12 13,3 C 13,3 C 12,2 C 94 % 2 lf 1017,6 hPa 0,0 l/m 0 min 0 min 32 W/m 4,2 km/h (1 Bft) 97,87 %
25.08.2017 07:14 13,3 C 13,3 C 12,2 C 94 % 2 lf 1017,6 hPa 0,0 l/m 0 min 0 min 32 W/m 4,2 km/h (1 Bft) 97,83 %
25.08.2017 07:16 13,4 C 13,3 C 12,2 C 94 % 2 lf 1017,5 hPa 0,0 l/m 0 min 0 min 34 W/m 4,2 km/h (1 Bft) 95,74 %
25.08.2017 07:18 13,4 C 13,3 C 12,2 C 94 % 2 lf 1017,6 hPa 0,0 l/m 0 min 0 min 36 W/m 4,2 km/h (1 Bft) 97,87 %
25.08.2017 07:20 13,4 C 13,9 C 12,2 C 94 % 2 lf 1017,7 hPa 0,0 l/m 0 min 0 min 37 W/m 4,2 km/h (1 Bft) 100,00 %
25.08.2017 07:22 13,4 C 13,9 C 12,8 C 94 % 1 lf 1017,7 hPa 0,0 l/m 0 min 0 min 37 W/m 2,1 km/h (1 Bft) 100,00 %
25.08.2017 07:24 13,4 C 13,9 C 12,8 C 94 % 1 lf 1017,6 hPa 0,0 l/m 0 min 0 min 40 W/m 0,0 km/h (0 Bft) 97,87 %
25.08.2017 07:26 13,4 C 13,9 C 12,8 C 94 % 1 lf 1017,6 hPa 0,0 l/m 0 min 0 min 44 W/m 0,0 km/h (0 Bft) 100,00 %
25.08.2017 07:28 13,4 C 13,9 C 12,8 C 94 % 1 lf 1017,6 hPa 0,0 l/m 0 min 0 min 46 W/m 0,0 km/h (0 Bft) 100,00 %
25.08.2017 07:30 13,4 C 13,9 C 12,8 C 94 % 1 lf 1017,6 hPa 0,0 l/m 0 min 0 min 47 W/m 2,1 km/h (1 Bft) 95,74 %
25.08.2017 07:32 13,5 C 13,9 C 13,3 C 94 % 1 lf 1017,6 hPa 0,0 l/m 0 min 0 min 47 W/m 2,1 km/h (1 Bft) 95,74 %
25.08.2017 07:34 13,5 C 14,4 C 13,3 C 94 % 1 lf 1017,6 hPa 0,0 l/m 0 min 0 min 46 W/m 4,2 km/h (1 Bft) 93,62 %
25.08.2017 07:36 13,5 C 14,4 C 13,3 C 95 % 1 lf 1017,6 hPa 0,0 l/m 0 min 0 min 46 W/m 6,3 km/h (2 Bft) 97,83 %
25.08.2017 07:38 13,6 C 14,4 C 13,3 C 95 % 1 lf 1017,6 hPa 0,0 l/m 0 min 0 min 48 W/m 4,2 km/h (1 Bft) 97,87 %
25.08.2017 07:40 13,6 C 14,4 C 13,3 C 95 % 1 lf 1017,6 hPa 0,0 l/m 0 min 0 min 49 W/m 2,1 km/h (1 Bft) 97,87 %
25.08.2017 07:42 13,7 C 14,4 C 13,3 C 95 % 1 lf 1017,6 hPa 0,0 l/m 0 min 0 min 47 W/m 4,2 km/h (1 Bft) 97,87 %
25.08.2017 07:44 13,7 C 14,4 C 13,3 C 95 % 1 lf 1017,6 hPa 0,0 l/m 0 min 0 min 49 W/m 0,0 km/h (0 Bft) 97,87 %
25.08.2017 07:46 13,8 C 14,4 C 13,3 C 95 % 1 lf 1017,6 hPa 0,0 l/m 0 min 0 min 53 W/m 0,0 km/h (0 Bft) 97,87 %
25.08.2017 07:48 13,8 C 14,4 C 13,3 C 95 % 1 lf 1017,6 hPa 0,0 l/m 0 min 0 min 54 W/m 4,2 km/h (1 Bft) 97,83 %
25.08.2017 07:50 13,8 C 14,4 C 13,3 C 95 % 1 lf 1017,6 hPa 0,0 l/m 0 min 0 min 57 W/m 6,3 km/h (2 Bft) 93,62 %
25.08.2017 07:52 13,8 C 14,4 C 13,3 C 95 % 1 lf 1017,6 hPa 0,0 l/m 0 min 0 min 61 W/m 6,3 km/h (2 Bft) 94,64 %
25.08.2017 07:54 13,8 C 14,4 C 13,9 C 95 % 1 lf 1017,7 hPa 0,0 l/m 0 min 0 min 64 W/m 4,2 km/h (1 Bft) 93,48 %
25.08.2017 07:56 13,9 C 14,4 C 13,9 C 95 % 1 lf 1017,6 hPa 0,0 l/m 0 min 0 min 68 W/m 4,2 km/h (1 Bft) 93,62 %
25.08.2017 07:58 13,9 C 14,4 C 13,9 C 95 % 1 lf 1017,7 hPa 0,0 l/m 0 min 0 min 71 W/m 4,2 km/h (1 Bft) 93,62 %
25.08.2017 08:00 13,9 C 14,4 C 13,9 C 95 % 1 lf 1017,8 hPa 0,0 l/m 0 min 0 min 75 W/m 4,2 km/h (1 Bft) 95,74 %
25.08.2017 08:02 13,9 C 15,0 C 13,9 C 95 % 1 lf 1017,8 hPa 0,0 l/m 0 min 0 min 78 W/m 2,1 km/h (1 Bft) 97,87 %
25.08.2017 08:04 14,0 C 15,0 C 13,9 C 95 % 1 lf 1017,7 hPa 0,0 l/m 0 min 0 min 81 W/m 0,0 km/h (0 Bft) 95,65 %
25.08.2017 08:06 14,0 C 15,0 C 13,9 C 95 % 1 lf 1017,7 hPa 0,0 l/m 0 min 0 min 85 W/m 4,2 km/h (1 Bft) 97,87 %
25.08.2017 08:08 14,0 C 15,6 C 13,9 C 95 % 1 lf 1017,7 hPa 0,0 l/m 0 min 0 min 91 W/m 0,0 km/h (0 Bft) 95,74 %
25.08.2017 08:10 14,0 C 15,6 C 13,9 C 95 % 1 lf 1017,8 hPa 0,0 l/m 0 min 0 min 96 W/m 0,0 km/h (0 Bft) 95,74 %
25.08.2017 08:12 14,1 C 15,6 C 14,4 C 95 % 1 lf 1017,8 hPa 0,0 l/m 0 min 0 min 100 W/m 0,0 km/h (0 Bft) 97,87 %
25.08.2017 08:14 14,1 C 16,1 C 14,4 C 95 % 1 lf 1017,7 hPa 0,0 l/m 0 min 0 min 112 W/m 0,0 km/h (0 Bft) 95,74 %
25.08.2017 08:16 14,1 C 16,1 C 14,4 C 95 % 1 lf 1017,7 hPa 0,0 l/m 0 min 0 min 117 W/m 0,0 km/h (0 Bft) 95,65 %
25.08.2017 08:18 14,1 C 16,7 C 14,4 C 95 % 1 lf 1017,7 hPa 0,0 l/m 0 min 0 min 111 W/m 0,0 km/h (0 Bft) 97,87 %
25.08.2017 08:20 14,2 C 16,7 C 14,4 C 96 % 1 lf 1017,6 hPa 0,0 l/m 0 min 0 min 115 W/m 0,0 km/h (0 Bft) 97,87 %
25.08.2017 08:22 14,2 C 16,7 C 14,4 C 96 % 1 lf 1017,6 hPa 0,0 l/m 0 min 0 min 110 W/m 0,0 km/h (0 Bft) 97,87 %
25.08.2017 08:24 14,2 C 16,7 C 14,4 C 96 % 1 lf 1017,6 hPa 0,0 l/m 0 min 0 min 119 W/m 0,0 km/h (0 Bft) 93,62 %
25.08.2017 08:26 14,2 C 16,7 C 15,0 C 96 % 1 lf 1017,6 hPa 0,0 l/m 2 min 0 min 144 W/m 0,0 km/h (0 Bft) 97,83 %
25.08.2017 08:28 14,2 C 16,7 C 15,0 C 96 % 0 lf 1017,6 hPa 0,0 l/m 2 min 0 min 170 W/m 0,0 km/h (0 Bft) 95,74 %
25.08.2017 08:30 14,2 C 16,7 C 15,0 C 96 % 0 lf 1017,7 hPa 0,0 l/m 2 min 0 min 164 W/m 0,0 km/h (0 Bft) 95,74 %
25.08.2017 08:32 14,3 C 16,7 C 15,0 C 96 % 0 lf 1017,7 hPa 0,0 l/m 2 min 0 min 161 W/m 0,0 km/h (0 Bft) 91,49 %
25.08.2017 08:34 14,3 C 16,1 C 15,0 C 96 % 0 lf 1017,7 hPa 0,0 l/m 0 min 0 min 130 W/m 0,0 km/h (0 Bft) 93,62 %
25.08.2017 08:36 14,4 C 16,7 C 15,0 C 96 % 0 lf 1017,8 hPa 0,0 l/m 0 min 0 min 145 W/m 2,1 km/h (1 Bft) 95,74 %
25.08.2017 08:38 14,5 C 16,7 C 15,0 C 96 % 0 lf 1017,8 hPa 0,0 l/m 2 min 0 min 162 W/m 2,1 km/h (1 Bft) 95,65 %
25.08.2017 08:40 14,6 C 16,7 C 15,0 C 96 % 0 lf 1017,7 hPa 0,0 l/m 2 min 0 min 155 W/m 8,4 km/h (2 Bft) 95,74 %
25.08.2017 08:42 14,6 C 16,7 C 15,6 C 96 % 0 lf 1017,7 hPa 0,0 l/m 2 min 0 min 175 W/m 6,3 km/h (2 Bft) 91,49 %
25.08.2017 08:44 14,7 C 16,7 C 15,6 C 96 % 0 lf 1017,8 hPa 0,0 l/m 2 min 0 min 203 W/m 4,2 km/h (1 Bft) 95,74 %
25.08.2017 08:46 14,7 C 16,7 C 15,6 C 96 % 0 lf 1018,0 hPa 0,0 l/m 0 min 0 min 155 W/m 6,3 km/h (2 Bft) 93,62 %
25.08.2017 08:48 14,8 C 17,2 C 15,6 C 96 % 0 lf 1018,1 hPa 0,0 l/m 2 min 0 min 202 W/m 6,3 km/h (2 Bft) 95,74 %
25.08.2017 08:50 14,8 C 17,8 C 15,6 C 96 % 0 lf 1018,1 hPa 0,0 l/m 2 min 0 min 233 W/m 8,4 km/h (2 Bft) 97,83 %
25.08.2017 08:52 14,9 C 18,3 C 15,6 C 96 % 0 lf 1018,1 hPa 0,0 l/m 2 min 0 min 220 W/m 6,3 km/h (2 Bft) 97,87 %
25.08.2017 08:54 14,9 C 18,9 C 15,6 C 96 % 0 lf 1018,2 hPa 0,0 l/m 2 min 0 min 258 W/m 6,3 km/h (2 Bft) 97,87 %
25.08.2017 08:56 15,0 C 19,4 C 15,6 C 96 % 0 lf 1018,1 hPa 0,0 l/m 2 min 0 min 273 W/m 6,3 km/h (2 Bft) 97,87 %
25.08.2017 08:58 15,1 C 21,1 C 16,1 C 96 % 0 lf 1018,1 hPa 0,0 l/m 2 min 0 min 279 W/m 6,3 km/h (2 Bft) 95,74 %
25.08.2017 09:00 15,2 C 22,2 C 16,1 C 96 % 0 lf 1018,2 hPa 0,0 l/m 2 min 0 min 301 W/m 2,1 km/h (1 Bft) 97,87 %
25.08.2017 09:02 15,2 C 23,9 C 16,1 C 96 % 0 lf 1018,2 hPa 0,0 l/m 2 min 0 min 302 W/m 2,1 km/h (1 Bft) 95,65 %
25.08.2017 09:04 15,3 C 23,9 C 16,1 C 96 % 0 lf 1018,2 hPa 0,0 l/m 2 min 0 min 316 W/m 2,1 km/h (1 Bft) 89,36 %
25.08.2017 09:06 15,4 C 23,9 C 16,1 C 96 % 0 lf 1018,1 hPa 0,0 l/m 2 min 0 min 283 W/m 4,2 km/h (1 Bft) 95,74 %
25.08.2017 09:08 15,5 C 23,3 C 16,1 C 96 % 0 lf 1018,0 hPa 0,0 l/m 2 min 0 min 212 W/m 6,3 km/h (2 Bft) 95,74 %
25.08.2017 09:10 15,6 C 23,3 C 16,7 C 96 % 0 lf 1017,9 hPa 0,0 l/m 2 min 0 min 274 W/m 6,3 km/h (2 Bft) 95,74 %
25.08.2017 09:12 15,6 C 22,8 C 16,7 C 96 % 0 lf 1018,0 hPa 0,0 l/m 2 min 0 min 271 W/m 6,3 km/h (2 Bft) 95,74 %
25.08.2017 09:14 15,7 C 22,8 C 16,7 C 96 % 0 lf 1018,1 hPa 0,0 l/m 2 min 0 min 266 W/m 4,2 km/h (1 Bft) 93,48 %
25.08.2017 09:16 15,8 C 22,8 C 17,2 C 96 % 0 lf 1018,1 hPa 0,0 l/m 2 min 0 min 220 W/m 4,2 km/h (1 Bft) 95,74 %
25.08.2017 09:18 15,9 C 22,8 C 17,2 C 96 % 0 lf 1018,1 hPa 0,0 l/m 2 min 0 min 213 W/m 6,3 km/h (2 Bft) 93,62 %
25.08.2017 09:20 16,0 C 23,9 C 17,2 C 95 % 0 lf 1018,2 hPa 0,0 l/m 2 min 0 min 237 W/m 6,3 km/h (2 Bft) 93,62 %
25.08.2017 09:22 16,1 C 23,9 C 17,2 C 95 % 0 lf 1018,2 hPa 0,0 l/m 2 min 0 min 273 W/m 4,2 km/h (1 Bft) 95,74 %
25.08.2017 09:24 16,2 C 22,8 C 17,2 C 95 % 0 lf 1018,1 hPa 0,0 l/m 2 min 0 min 249 W/m 4,2 km/h (1 Bft) 97,87 %
25.08.2017 09:26 16,3 C 22,8 C 17,2 C 95 % 0 lf 1018,1 hPa 0,0 l/m 2 min 0 min 261 W/m 6,3 km/h (2 Bft) 97,83 %
25.08.2017 09:28 16,3 C 23,9 C 17,8 C 95 % 0 lf 1018,1 hPa 0,0 l/m 2 min 0 min 341 W/m 4,2 km/h (1 Bft) 97,87 %
25.08.2017 09:30 16,5 C 25,6 C 17,8 C 95 % 0 lf 1018,1 hPa 0,0 l/m 2 min 0 min 363 W/m 6,3 km/h (2 Bft) 95,74 %
25.08.2017 09:32 16,6 C 24,4 C 17,8 C 94 % 0 lf 1018,1 hPa 0,0 l/m 2 min 0 min 336 W/m 6,3 km/h (2 Bft) 97,87 %
25.08.2017 09:34 16,7 C 23,3 C 18,3 C 94 % 0 lf 1018,2 hPa 0,0 l/m 2 min 0 min 334 W/m 4,2 km/h (1 Bft) 95,74 %
25.08.2017 09:36 16,8 C 22,8 C 18,3 C 93 % 0 lf 1018,1 hPa 0,0 l/m 2 min 0 min 319 W/m 6,3 km/h (2 Bft) 93,62 %
25.08.2017 09:38 16,9 C 22,8 C 18,9 C 93 % 0 lf 1018,1 hPa 0,0 l/m 2 min 0 min 324 W/m 6,3 km/h (2 Bft) 91,30 %
25.08.2017 09:40 17,1 C 22,2 C 18,9 C 92 % 0 lf 1018,2 hPa 0,0 l/m 2 min 0 min 297 W/m 6,3 km/h (2 Bft) 95,74 %
25.08.2017 09:42 17,2 C 21,7 C 18,9 C 91 % 0 lf 1018,2 hPa 0,0 l/m 2 min 0 min 302 W/m 8,4 km/h (2 Bft) 97,87 %
25.08.2017 09:44 17,4 C 22,2 C 18,9 C 90 % 0 lf 1018,1 hPa 0,0 l/m 2 min 0 min 316 W/m 6,3 km/h (2 Bft) 95,74 %
25.08.2017 09:46 17,5 C 22,2 C 19,4 C 89 % 0 lf 1018,1 hPa 0,0 l/m 2 min 0 min 341 W/m 6,3 km/h (2 Bft) 97,87 %
25.08.2017 09:48 17,7 C 21,7 C 19,4 C 88 % 0 lf 1018,2 hPa 0,0 l/m 2 min 0 min 276 W/m 6,3 km/h (2 Bft) 95,74 %
25.08.2017 09:50 17,8 C 21,1 C 19,4 C 87 % 0 lf 1018,1 hPa 0,0 l/m 2 min 0 min 253 W/m 8,4 km/h (2 Bft) 95,65 %
25.08.2017 09:52 17,9 C 21,1 C 19,4 C 86 % 0 lf 1018,2 hPa 0,0 l/m 2 min 0 min 264 W/m 10,5 km/h (2 Bft) 95,74 %
25.08.2017 09:54 18,0 C 21,1 C 19,4 C 86 % 0 lf 1018,2 hPa 0,0 l/m 2 min 0 min 256 W/m 6,3 km/h (2 Bft) 93,62 %
25.08.2017 09:56 18,1 C 21,1 C 19,4 C 85 % 0 lf 1018,2 hPa 0,0 l/m 0 min 0 min 223 W/m 6,3 km/h (2 Bft) 97,87 %
25.08.2017 09:58 18,2 C 21,7 C 19,4 C 85 % 0 lf 1018,2 hPa 0,0 l/m 0 min 0 min 243 W/m 6,3 km/h (2 Bft) 97,87 %
25.08.2017 10:00 18,3 C 22,2 C 20,0 C 84 % 0 lf 1018,2 hPa 0,0 l/m 2 min 0 min 334 W/m 8,4 km/h (2 Bft) 97,83 %
25.08.2017 10:02 18,3 C 22,8 C 20,0 C 84 % 0 lf 1018,1 hPa 0,0 l/m 2 min 0 min 358 W/m 6,3 km/h (2 Bft) 97,87 %
25.08.2017 10:04 18,4 C 23,9 C 21,1 C 84 % 0 lf 1018,1 hPa 0,0 l/m 2 min 0 min 408 W/m 6,3 km/h (2 Bft) 97,87 %
25.08.2017 10:06 18,6 C 24,4 C 21,7 C 83 % 0 lf 1018,2 hPa 0,0 l/m 2 min 0 min 429 W/m 8,4 km/h (2 Bft) 91,49 %
25.08.2017 10:08 18,7 C 24,4 C 21,7 C 83 % 0 lf 1018,2 hPa 0,0 l/m 2 min 0 min 394 W/m 8,4 km/h (2 Bft) 95,74 %
25.08.2017 10:10 18,8 C 25,0 C 21,7 C 83 % 0 lf 1018,2 hPa 0,0 l/m 2 min 0 min 402 W/m 8,4 km/h (2 Bft) 95,74 %
25.08.2017 10:12 18,9 C 24,4 C 21,7 C 81 % 0 lf 1018,1 hPa 0,0 l/m 2 min 0 min 375 W/m 4,2 km/h (1 Bft) 97,83 %
25.08.2017 10:14 19,0 C 25,0 C 22,2 C 81 % 0 lf 1018,1 hPa 0,0 l/m 2 min 0 min 410 W/m 8,4 km/h (2 Bft) 100,00 %
25.08.2017 10:16 19,1 C 25,0 C 21,7 C 81 % 0 lf 1018,1 hPa 0,0 l/m 2 min 0 min 360 W/m 4,2 km/h (1 Bft) 100,00 %
25.08.2017 10:18 19,2 C 25,6 C 22,2 C 81 % 0 lf 1018,1 hPa 0,0 l/m 2 min 0 min 395 W/m 6,3 km/h (2 Bft) 100,00 %
25.08.2017 10:20 19,3 C 25,6 C 22,8 C 80 % 0 lf 1018,1 hPa 0,0 l/m 2 min 0 min 392 W/m 8,4 km/h (2 Bft) 100,00 %
25.08.2017 10:22 19,4 C 25,6 C 22,8 C 80 % 0 lf 1018,2 hPa 0,0 l/m 2 min 0 min 462 W/m 8,4 km/h (2 Bft) 100,00 %
25.08.2017 10:24 19,5 C 26,7 C 22,8 C 80 % 0 lf 1018,1 hPa 0,0 l/m 2 min 0 min 652 W/m 4,2 km/h (1 Bft) 100,00 %
25.08.2017 10:26 19,6 C 26,7 C 23,3 C 80 % 0 lf 1018,2 hPa 0,0 l/m 2 min 0 min 585 W/m 8,4 km/h (2 Bft) 100,00 %
25.08.2017 10:28 19,7 C 27,2 C 24,4 C 80 % 0 lf 1018,2 hPa 0,0 l/m 2 min 0 min 589 W/m 6,3 km/h (2 Bft) 100,00 %
25.08.2017 10:30 19,8 C 27,8 C 24,4 C 80 % 0 lf 1018,1 hPa 0,0 l/m 2 min 0 min 593 W/m 6,3 km/h (2 Bft) 100,00 %
25.08.2017 10:32 20,0 C 27,2 C 24,4 C 79 % 0 lf 1018,1 hPa 0,0 l/m 2 min 0 min 598 W/m 8,4 km/h (2 Bft) 100,00 %
25.08.2017 10:34 20,1 C 26,7 C 24,4 C 79 % 0 lf 1018,1 hPa 0,0 l/m 2 min 0 min 602 W/m 6,3 km/h (2 Bft) 100,00 %
25.08.2017 10:36 20,2 C 26,1 C 25,0 C 78 % 0 lf 1018,1 hPa 0,0 l/m 2 min 0 min 606 W/m 6,3 km/h (2 Bft) 97,83 %
25.08.2017 10:38 20,3 C 26,1 C 25,0 C 77 % 0 lf 1018,1 hPa 0,0 l/m 2 min 0 min 610 W/m 8,4 km/h (2 Bft) 100,00 %
25.08.2017 10:40 20,4 C 26,1 C 25,0 C 77 % 0 lf 1018,1 hPa 0,0 l/m 2 min 0 min 613 W/m 12,6 km/h (3 Bft) 97,87 %
25.08.2017 10:42 20,5 C 26,1 C 25,6 C 75 % 0 lf 1018,2 hPa 0,0 l/m 2 min 0 min 617 W/m 10,5 km/h (2 Bft) 95,74 %
25.08.2017 10:44 20,7 C 26,7 C 25,6 C 75 % 0 lf 1018,2 hPa 0,0 l/m 2 min 0 min 621 W/m 12,6 km/h (3 Bft) 100,00 %
25.08.2017 10:46 20,7 C 26,7 C 25,0 C 74 % 0 lf 1018,2 hPa 0,0 l/m 2 min 0 min 625 W/m 8,4 km/h (2 Bft) 100,00 %
25.08.2017 10:48 20,8 C 26,7 C 25,6 C 74 % 0 lf 1018,2 hPa 0,0 l/m 2 min 0 min 629 W/m 8,4 km/h (2 Bft) 100,00 %
25.08.2017 10:50 20,9 C 26,7 C 25,0 C 73 % 0 lf 1018,2 hPa 0,0 l/m 2 min 0 min 632 W/m 10,5 km/h (2 Bft) 100,00 %
25.08.2017 10:53 21,0 C 27,2 C 25,0 C 73 % 0 lf 1018,1 hPa 0,0 l/m 3 min 0 min 638 W/m 8,4 km/h (2 Bft) 98,57 %
25.08.2017 10:54 21,1 C 27,2 C 25,0 C 73 % 0 lf 1018,1 hPa 0,0 l/m 1 min 0 min 640 W/m 8,4 km/h (2 Bft) 95,83 %
25.08.2017 10:58 21,2 C 27,8 C 25,0 C 72 % 0 lf 1018,1 hPa 0,0 l/m 4 min 0 min 647 W/m 10,5 km/h (2 Bft) 100,00 %
25.08.2017 10:59 21,3 C 27,2 C 25,0 C 72 % 0 lf 1018,2 hPa 0,0 l/m 1 min 0 min 649 W/m 12,6 km/h (3 Bft) 100,00 %
25.08.2017 11:00 21,3 C 27,8 C 24,4 C 73 % 0 lf 1018,2 hPa 0,0 l/m 1 min 0 min 651 W/m 12,6 km/h (3 Bft) 100,00 %
25.08.2017 11:05 21,6 C 27,2 C 23,3 C 71 % 0 lf 1018,1 hPa 0,0 l/m 5 min 0 min 659 W/m 14,6 km/h (3 Bft) 100,00 %
25.08.2017 11:10 21,7 C 27,2 C 23,9 C 70 % 0 lf 1018,0 hPa 0,0 l/m 5 min 0 min 839 W/m 10,5 km/h (2 Bft) 99,12 %
25.08.2017 11:15 21,8 C 28,3 C 25,6 C 70 % 0 lf 1018,0 hPa 0,0 l/m 5 min 0 min 849 W/m 12,6 km/h (3 Bft) 98,25 %
25.08.2017 11:20 22,0 C 28,9 C 26,7 C 70 % 0 lf 1017,9 hPa 0,0 l/m 5 min 0 min 888 W/m 12,6 km/h (3 Bft) 98,25 %
25.08.2017 11:25 22,2 C 30,0 C 26,7 C 69 % 0 lf 1018,0 hPa 0,0 l/m 5 min 0 min 692 W/m 10,5 km/h (2 Bft) 100,00 %
25.08.2017 11:30 22,4 C 28,9 C 27,8 C 68 % 0 lf 1017,9 hPa 0,0 l/m 5 min 0 min 699 W/m 14,6 km/h (3 Bft) 98,25 %
25.08.2017 11:35 22,6 C 28,9 C 28,3 C 68 % 0 lf 1017,8 hPa 0,0 l/m 5 min 0 min 706 W/m 12,6 km/h (3 Bft) 97,37 %
25.08.2017 11:40 22,7 C 28,9 C 28,3 C 67 % 0 lf 1017,8 hPa 0,0 l/m 5 min 0 min 713 W/m 10,5 km/h (2 Bft) 96,49 %
25.08.2017 11:45 22,8 C 28,9 C 28,3 C 66 % 0 lf 1017,7 hPa 0,0 l/m 5 min 0 min 720 W/m 12,6 km/h (3 Bft) 96,49 %
25.08.2017 11:50 23,0 C 31,1 C 27,8 C 66 % 0 lf 1017,6 hPa 0,0 l/m 5 min 0 min 726 W/m 12,6 km/h (3 Bft) 93,86 %
25.08.2017 11:55 23,2 C 30,6 C 28,9 C 65 % 0 lf 1017,7 hPa 0,0 l/m 5 min 0 min 733 W/m 10,5 km/h (2 Bft) 92,98 %
25.08.2017 12:00 23,4 C 30,0 C 30,0 C 64 % 0 lf 1017,6 hPa 0,0 l/m 5 min 0 min 738 W/m 12,6 km/h (3 Bft) 94,74 %
25.08.2017 12:05 23,6 C 31,1 C 30,0 C 65 % 0 lf 1017,6 hPa 0,0 l/m 5 min 0 min 744 W/m 10,5 km/h (2 Bft) 95,61 %
25.08.2017 12:10 23,8 C 33,9 C 28,3 C 64 % 0 lf 1017,6 hPa 0,0 l/m 5 min 0 min 988 W/m 8,4 km/h (2 Bft) 94,74 %
25.08.2017 12:15 24,0 C 33,3 C 28,3 C 63 % 0 lf 1017,5 hPa 0,0 l/m 5 min 0 min 754 W/m 14,6 km/h (3 Bft) 94,74 %
25.08.2017 12:20 24,1 C 31,1 C 28,3 C 63 % 0 lf 1017,5 hPa 0,0 l/m 5 min 0 min 998 W/m 16,7 km/h (3 Bft) 97,37 %
25.08.2017 12:25 24,2 C 30,0 C 27,8 C 62 % 0 lf 1017,6 hPa 0,0 l/m 5 min 0 min 763 W/m 10,5 km/h (2 Bft) 97,37 %
25.08.2017 12:30 24,3 C 32,8 C 27,2 C 63 % 0 lf 1017,5 hPa 0,0 l/m 5 min 0 min 768 W/m 12,6 km/h (3 Bft) 100,00 %
25.08.2017 12:35 24,5 C 31,7 C 26,7 C 63 % 0 lf 1017,5 hPa 0,0 l/m 5 min 0 min 771 W/m 10,5 km/h (2 Bft) 98,25 %
25.08.2017 12:40 24,6 C 30,6 C 26,1 C 63 % 0 lf 1017,5 hPa 0,0 l/m 5 min 0 min 775 W/m 14,6 km/h (3 Bft) 100,00 %
25.08.2017 12:45 24,7 C 30,0 C 25,6 C 61 % 0 lf 1017,5 hPa 0,0 l/m 5 min 0 min 778 W/m 10,5 km/h (2 Bft) 100,00 %
25.08.2017 12:50 24,7 C 30,6 C 25,6 C 61 % 0 lf 1017,3 hPa 0,0 l/m 5 min 0 min 781 W/m 16,7 km/h (3 Bft) 100,00 %
25.08.2017 12:55 24,7 C 31,7 C 25,6 C 61 % 0 lf 1017,3 hPa 0,0 l/m 5 min 0 min 784 W/m 16,7 km/h (3 Bft) 100,00 %
25.08.2017 13:00 24,7 C 32,2 C 26,7 C 60 % 0 lf 1017,2 hPa 0,0 l/m 5 min 0 min 786 W/m 16,7 km/h (3 Bft) 100,00 %
25.08.2017 13:05 24,8 C 32,2 C 26,1 C 60 % 0 lf 1017,1 hPa 0,0 l/m 5 min 0 min 788 W/m 18,8 km/h (3 Bft) 100,00 %
25.08.2017 13:10 24,8 C 32,8 C 26,1 C 59 % 0 lf 1017,0 hPa 0,0 l/m 5 min 0 min 790 W/m 14,6 km/h (3 Bft) 100,00 %
25.08.2017 13:15 24,9 C 30,0 C 25,6 C 58 % 0 lf 1017,1 hPa 0,0 l/m 5 min 0 min 791 W/m 18,8 km/h (3 Bft) 100,00 %
25.08.2017 13:20 24,9 C 29,4 C 26,1 C 58 % 0 lf 1017,1 hPa 0,0 l/m 5 min 0 min 792 W/m 16,7 km/h (3 Bft) 100,00 %
25.08.2017 13:25 25,1 C 32,8 C 26,1 C 60 % 0 lf 1017,1 hPa 0,0 l/m 5 min 0 min 793 W/m 8,4 km/h (2 Bft) 100,00 %
25.08.2017 13:30 25,1 C 32,2 C 26,1 C 58 % 0 lf 1017,0 hPa 0,0 l/m 5 min 0 min 794 W/m 10,5 km/h (2 Bft) 100,00 %
25.08.2017 13:35 25,2 C 31,1 C 25,6 C 58 % 0 lf 1017,0 hPa 0,0 l/m 5 min 0 min 794 W/m 20,9 km/h (4 Bft) 100,00 %
25.08.2017 13:40 25,2 C 31,7 C 24,4 C 57 % 0 lf 1017,0 hPa 0,0 l/m 5 min 0 min 794 W/m 10,5 km/h (2 Bft) 100,00 %
25.08.2017 13:45 25,1 C 31,7 C 25,0 C 58 % 0 lf 1016,9 hPa 0,0 l/m 5 min 0 min 794 W/m 18,8 km/h (3 Bft) 100,00 %
25.08.2017 13:50 25,1 C 31,7 C 25,6 C 57 % 0 lf 1016,9 hPa 0,0 l/m 5 min 0 min 793 W/m 14,6 km/h (3 Bft) 100,00 %
25.08.2017 13:55 25,2 C 29,4 C 26,1 C 57 % 0 lf 1016,9 hPa 0,0 l/m 5 min 0 min 792 W/m 10,5 km/h (2 Bft) 100,00 %
25.08.2017 14:00 25,2 C 30,6 C 26,1 C 58 % 0 lf 1016,9 hPa 0,0 l/m 5 min 0 min 790 W/m 10,5 km/h (2 Bft) 100,00 %
25.08.2017 14:04 25,2 C 28,3 C 26,7 C 58 % 0 lf 1016,9 hPa 0,0 l/m 4 min 0 min 789 W/m 10,5 km/h (2 Bft) 97,83 %
25.08.2017 14:06 25,2 C 28,3 C 26,1 C 58 % 0 lf 1016,9 hPa 0,0 l/m 2 min 0 min 788 W/m 12,6 km/h (3 Bft) 97,87 %
25.08.2017 14:08 25,2 C 28,3 C 26,7 C 58 % 0 lf 1016,9 hPa 0,0 l/m 2 min 0 min 788 W/m 12,6 km/h (3 Bft) 95,74 %
25.08.2017 14:10 25,2 C 27,8 C 26,1 C 58 % 0 lf 1016,8 hPa 0,0 l/m 2 min 0 min 787 W/m 16,7 km/h (3 Bft) 95,74 %
25.08.2017 14:12 25,1 C 28,3 C 26,1 C 57 % 0 lf 1016,8 hPa 0,0 l/m 2 min 0 min 786 W/m 14,6 km/h (3 Bft) 95,74 %
25.08.2017 14:14 25,1 C 27,8 C 26,1 C 57 % 0 lf 1016,9 hPa 0,0 l/m 2 min 0 min 785 W/m 6,3 km/h (2 Bft) 93,62 %
25.08.2017 14:16 25,1 C 28,3 C 26,1 C 57 % 0 lf 1016,9 hPa 0,0 l/m 2 min 0 min 784 W/m 16,7 km/h (3 Bft) 95,65 %
25.08.2017 14:18 25,1 C 30,0 C 26,1 C 58 % 0 lf 1016,9 hPa 0,0 l/m 2 min 0 min 783 W/m 12,6 km/h (3 Bft) 93,62 %
25.08.2017 14:20 25,1 C 31,1 C 26,1 C 58 % 0 lf 1016,9 hPa 0,0 l/m 2 min 0 min 782 W/m 10,5 km/h (2 Bft) 91,49 %
25.08.2017 14:22 25,1 C 31,7 C 26,1 C 57 % 0 lf 1016,9 hPa 0,0 l/m 2 min 0 min 781 W/m 4,2 km/h (1 Bft) 94,44 %
25.08.2017 14:24 25,1 C 30,6 C 26,1 C 58 % 0 lf 1016,9 hPa 0,0 l/m 2 min 0 min 780 W/m 6,3 km/h (2 Bft) 91,30 %
25.08.2017 14:26 25,1 C 30,6 C 26,7 C 58 % 0 lf 1016,8 hPa 0,0 l/m 2 min 0 min 779 W/m 6,3 km/h (2 Bft) 93,62 %
25.08.2017 14:28 25,2 C 31,7 C 27,2 C 59 % 0 lf 1016,7 hPa 0,0 l/m 2 min 0 min 777 W/m 10,5 km/h (2 Bft) 93,62 %
25.08.2017 14:30 25,2 C 32,8 C 27,2 C 58 % 0 lf 1016,7 hPa 0,0 l/m 2 min 0 min 776 W/m 10,5 km/h (2 Bft) 95,74 %
25.08.2017 14:32 25,2 C 33,3 C 27,2 C 59 % 0 lf 1016,7 hPa 0,0 l/m 2 min 0 min 775 W/m 10,5 km/h (2 Bft) 93,62 %
25.08.2017 14:34 25,3 C 32,8 C 26,7 C 58 % 0 lf 1016,8 hPa 0,0 l/m 2 min 0 min 773 W/m 14,6 km/h (3 Bft) 91,49 %
25.08.2017 14:36 25,3 C 31,7 C 26,7 C 57 % 0 lf 1016,8 hPa 0,0 l/m 2 min 0 min 772 W/m 14,6 km/h (3 Bft) 95,65 %
25.08.2017 14:38 25,3 C 31,7 C 27,2 C 58 % 0 lf 1016,7 hPa 0,0 l/m 2 min 0 min 771 W/m 14,6 km/h (3 Bft) 95,74 %
25.08.2017 14:40 25,3 C 31,1 C 27,2 C 57 % 0 lf 1016,8 hPa 0,0 l/m 2 min 0 min 769 W/m 12,6 km/h (3 Bft) 93,62 %
25.08.2017 14:42 25,3 C 30,6 C 26,7 C 57 % 0 lf 1016,7 hPa 0,0 l/m 2 min 0 min 767 W/m 12,6 km/h (3 Bft) 91,49 %
25.08.2017 14:44 25,2 C 30,6 C 27,2 C 57 % 0 lf 1016,8 hPa 0,0 l/m 2 min 0 min 766 W/m 14,6 km/h (3 Bft) 93,62 %
25.08.2017 14:46 25,2 C 28,3 C 27,2 C 56 % 0 lf 1016,8 hPa 0,0 l/m 2 min 0 min 764 W/m 18,8 km/h (3 Bft) 93,62 %
25.08.2017 14:48 25,2 C 28,9 C 27,2 C 57 % 0 lf 1016,8 hPa 0,0 l/m 2 min 0 min 762 W/m 14,6 km/h (3 Bft) 95,65 %
25.08.2017 14:50 25,2 C 28,9 C 28,3 C 57 % 0 lf 1016,8 hPa 0,0 l/m 2 min 0 min 761 W/m 8,4 km/h (2 Bft) 95,74 %
25.08.2017 14:52 25,2 C 29,4 C 27,8 C 56 % 0 lf 1016,8 hPa 0,0 l/m 2 min 0 min 759 W/m 8,4 km/h (2 Bft) 94,00 %
25.08.2017 14:54 25,2 C 29,4 C 28,3 C 58 % 0 lf 1016,7 hPa 0,0 l/m 2 min 0 min 757 W/m 6,3 km/h (2 Bft) 97,87 %
25.08.2017 14:56 25,2 C 28,9 C 28,3 C 57 % 0 lf 1016,7 hPa 0,0 l/m 2 min 0 min 755 W/m 8,4 km/h (2 Bft) 89,36 %
25.08.2017 14:58 25,3 C 29,4 C 28,9 C 57 % 0 lf 1016,7 hPa 0,0 l/m 2 min 0 min 753 W/m 8,4 km/h (2 Bft) 93,48 %
25.08.2017 15:00 25,3 C 28,9 C 28,9 C 57 % 0 lf 1016,8 hPa 0,0 l/m 2 min 0 min 751 W/m 6,3 km/h (2 Bft) 93,62 %
25.08.2017 15:02 25,3 C 29,4 C 29,4 C 58 % 0 lf 1016,7 hPa 0,0 l/m 2 min 0 min 749 W/m 10,5 km/h (2 Bft) 93,62 %
25.08.2017 15:04 25,4 C 29,4 C 30,0 C 57 % 0 lf 1016,7 hPa 0,0 l/m 2 min 0 min 747 W/m 10,5 km/h (2 Bft) 91,49 %
25.08.2017 15:06 25,4 C 29,4 C 28,9 C 57 % 0 lf 1016,6 hPa 0,0 l/m 2 min 0 min 745 W/m 14,6 km/h (3 Bft) 93,62 %
25.08.2017 15:08 25,4 C 29,4 C 28,9 C 57 % 0 lf 1016,6 hPa 0,0 l/m 2 min 0 min 743 W/m 14,6 km/h (3 Bft) 97,87 %
25.08.2017 15:10 25,5 C 30,0 C 28,9 C 57 % 0 lf 1016,5 hPa 0,0 l/m 2 min 0 min 740 W/m 16,7 km/h (3 Bft) 95,65 %
25.08.2017 15:12 25,5 C 28,9 C 29,4 C 56 % 0 lf 1016,5 hPa 0,0 l/m 2 min 0 min 738 W/m 14,6 km/h (3 Bft) 97,87 %
25.08.2017 15:14 25,5 C 28,3 C 28,9 C 58 % 0 lf 1016,4 hPa 0,0 l/m 2 min 0 min 736 W/m 10,5 km/h (2 Bft) 97,87 %
25.08.2017 15:16 25,6 C 28,3 C 27,8 C 56 % 0 lf 1016,4 hPa 0,0 l/m 2 min 0 min 734 W/m 10,5 km/h (2 Bft) 97,87 %
25.08.2017 15:18 25,6 C 27,8 C 26,7 C 57 % 0 lf 1016,4 hPa 0,0 l/m 2 min 0 min 731 W/m 14,6 km/h (3 Bft) 95,74 %
25.08.2017 15:20 25,5 C 27,8 C 26,7 C 56 % 0 lf 1016,4 hPa 0,0 l/m 2 min 0 min 729 W/m 10,5 km/h (2 Bft) 95,74 %
25.08.2017 15:22 25,5 C 27,2 C 25,6 C 56 % 0 lf 1016,4 hPa 0,0 l/m 2 min 0 min 726 W/m 14,6 km/h (3 Bft) 93,48 %
25.08.2017 15:24 25,4 C 27,2 C 25,6 C 57 % 0 lf 1016,4 hPa 0,0 l/m 2 min 0 min 724 W/m 14,6 km/h (3 Bft) 97,87 %
25.08.2017 15:26 25,3 C 27,2 C 25,6 C 56 % 0 lf 1016,4 hPa 0,0 l/m 2 min 0 min 721 W/m 14,6 km/h (3 Bft) 97,87 %
25.08.2017 15:28 25,3 C 27,2 C 25,6 C 57 % 0 lf 1016,4 hPa 0,0 l/m 2 min 0 min 777 W/m 10,5 km/h (2 Bft) 95,74 %
25.08.2017 15:30 25,2 C 27,2 C 25,6 C 57 % 0 lf 1016,3 hPa 0,0 l/m 2 min 0 min 361 W/m 8,4 km/h (2 Bft) 93,62 %
25.08.2017 15:32 25,2 C 27,8 C 25,6 C 56 % 0 lf 1016,3 hPa 0,0 l/m 2 min 0 min 369 W/m 10,5 km/h (2 Bft) 97,87 %
25.08.2017 15:34 25,1 C 27,8 C 26,1 C 57 % 0 lf 1016,3 hPa 0,0 l/m 2 min 0 min 345 W/m 6,3 km/h (2 Bft) 97,83 %
25.08.2017 15:36 25,1 C 26,7 C 26,1 C 57 % 0 lf 1016,4 hPa 0,0 l/m 0 min 0 min 314 W/m 12,6 km/h (3 Bft) 97,87 %
25.08.2017 15:38 25,1 C 26,7 C 26,1 C 58 % 0 lf 1016,4 hPa 0,0 l/m 0 min 0 min 280 W/m 10,5 km/h (2 Bft) 97,87 %
25.08.2017 15:40 25,1 C 26,7 C 26,1 C 58 % 0 lf 1016,4 hPa 0,0 l/m 0 min 0 min 259 W/m 10,5 km/h (2 Bft) 95,74 %
25.08.2017 15:42 25,1 C 26,7 C 25,6 C 57 % 0 lf 1016,3 hPa 0,0 l/m 0 min 0 min 252 W/m 12,6 km/h (3 Bft) 97,87 %
25.08.2017 15:44 25,1 C 26,1 C 26,1 C 58 % 0 lf 1016,4 hPa 0,0 l/m 0 min 0 min 252 W/m 8,4 km/h (2 Bft) 97,83 %
25.08.2017 15:46 25,1 C 26,7 C 26,1 C 58 % 0 lf 1016,3 hPa 0,0 l/m 0 min 0 min 246 W/m 4,2 km/h (1 Bft) 91,49 %
25.08.2017 15:48 25,1 C 26,7 C 25,6 C 57 % 0 lf 1016,4 hPa 0,0 l/m 0 min 0 min 238 W/m 6,3 km/h (2 Bft) 95,74 %
25.08.2017 15:50 25,1 C 25,6 C 25,6 C 57 % 0 lf 1016,4 hPa 0,0 l/m 0 min 0 min 249 W/m 12,6 km/h (3 Bft) 100,00 %
25.08.2017 15:52 25,0 C 25,6 C 26,1 C 58 % 0 lf 1016,3 hPa 0,0 l/m 0 min 0 min 264 W/m 10,5 km/h (2 Bft) 100,00 %
25.08.2017 15:54 25,0 C 25,6 C 25,6 C 58 % 0 lf 1016,2 hPa 0,0 l/m 0 min 0 min 260 W/m 10,5 km/h (2 Bft) 97,87 %
25.08.2017 15:56 25,0 C 25,6 C 25,6 C 57 % 0 lf 1016,1 hPa 0,0 l/m 0 min 0 min 272 W/m 16,7 km/h (3 Bft) 100,00 %
25.08.2017 15:58 24,9 C 25,6 C 25,6 C 57 % 0 lf 1016,1 hPa 0,0 l/m 0 min 0 min 304 W/m 10,5 km/h (2 Bft) 100,00 %
25.08.2017 16:00 24,9 C 26,1 C 25,6 C 58 % 0 lf 1016,1 hPa 0,0 l/m 2 min 0 min 342 W/m 12,6 km/h (3 Bft) 100,00 %
25.08.2017 16:02 24,9 C 26,1 C 26,1 C 58 % 0 lf 1016,1 hPa 0,0 l/m 2 min 0 min 326 W/m 10,5 km/h (2 Bft) 97,87 %
25.08.2017 16:04 24,9 C 26,1 C 25,6 C 58 % 0 lf 1016,1 hPa 0,0 l/m 2 min 0 min 315 W/m 12,6 km/h (3 Bft) 93,62 %
25.08.2017 16:06 24,9 C 26,7 C 25,6 C 58 % 0 lf 1016,2 hPa 0,0 l/m 2 min 0 min 313 W/m 14,6 km/h (3 Bft) 91,49 %
25.08.2017 16:08 24,9 C 27,2 C 25,0 C 58 % 0 lf 1016,1 hPa 0,0 l/m 2 min 0 min 352 W/m 18,8 km/h (3 Bft) 97,87 %
25.08.2017 16:10 24,9 C 27,8 C 25,6 C 59 % 0 lf 1016,2 hPa 0,0 l/m 2 min 0 min 409 W/m 14,6 km/h (3 Bft) 97,87 %
25.08.2017 16:12 24,9 C 27,8 C 26,1 C 59 % 0 lf 1016,2 hPa 0,0 l/m 2 min 0 min 416 W/m 12,6 km/h (3 Bft) 95,65 %
25.08.2017 16:14 24,9 C 27,2 C 26,7 C 60 % 0 lf 1016,2 hPa 0,0 l/m 2 min 0 min 326 W/m 10,5 km/h (2 Bft) 97,87 %
25.08.2017 16:16 25,0 C 26,7 C 26,1 C 58 % 0 lf 1016,1 hPa 0,0 l/m 0 min 0 min 294 W/m 10,5 km/h (2 Bft) 95,74 %
25.08.2017 16:18 25,0 C 26,1 C 26,1 C 59 % 0 lf 1016,2 hPa 0,0 l/m 2 min 0 min 311 W/m 12,6 km/h (3 Bft) 97,87 %
25.08.2017 16:20 24,9 C 26,7 C 26,1 C 58 % 0 lf 1016,2 hPa 0,0 l/m 2 min 0 min 319 W/m 10,5 km/h (2 Bft) 97,87 %
25.08.2017 16:22 24,9 C 26,1 C 26,1 C 58 % 0 lf 1016,2 hPa 0,0 l/m 0 min 0 min 259 W/m 8,4 km/h (2 Bft) 97,87 %
25.08.2017 16:24 25,0 C 26,1 C 26,1 C 59 % 0 lf 1016,2 hPa 0,0 l/m 0 min 0 min 224 W/m 10,5 km/h (2 Bft) 97,83 %
25.08.2017 16:26 25,0 C 26,1 C 25,6 C 58 % 0 lf 1016,2 hPa 0,0 l/m 0 min 0 min 191 W/m 10,5 km/h (2 Bft) 97,87 %
25.08.2017 16:28 25,0 C 26,1 C 25,6 C 58 % 0 lf 1016,1 hPa 0,0 l/m 0 min 0 min 163 W/m 10,5 km/h (2 Bft) 97,87 %
25.08.2017 16:30 24,9 C 26,1 C 25,0 C 58 % 0 lf 1016,2 hPa 0,0 l/m 0 min 0 min 152 W/m 10,5 km/h (2 Bft) 97,87 %
25.08.2017 16:32 24,9 C 26,1 C 24,4 C 58 % 0 lf 1016,2 hPa 0,0 l/m 0 min 0 min 164 W/m 10,5 km/h (2 Bft) 97,87 %
25.08.2017 16:34 24,9 C 26,1 C 24,4 C 57 % 0 lf 1016,1 hPa 0,0 l/m 0 min 0 min 180 W/m 8,4 km/h (2 Bft) 97,87 %
25.08.2017 16:36 24,9 C 25,6 C 24,4 C 58 % 0 lf 1016,1 hPa 0,0 l/m 0 min 0 min 207 W/m 8,4 km/h (2 Bft) 95,65 %
25.08.2017 16:38 24,9 C 25,6 C 25,0 C 58 % 0 lf 1016,1 hPa 0,0 l/m 0 min 0 min 225 W/m 12,6 km/h (3 Bft) 93,62 %
25.08.2017 16:40 24,9 C 25,0 C 25,0 C 58 % 0 lf 1016,1 hPa 0,0 l/m 0 min 0 min 218 W/m 14,6 km/h (3 Bft) 100,00 %
25.08.2017 16:42 24,8 C 25,0 C 25,0 C 59 % 0 lf 1016,0 hPa 0,0 l/m 0 min 0 min 198 W/m 16,7 km/h (3 Bft) 95,74 %
25.08.2017 16:44 24,8 C 25,0 C 25,0 C 57 % 0 lf 1016,0 hPa 0,0 l/m 0 min 0 min 179 W/m 14,6 km/h (3 Bft) 97,87 %
25.08.2017 16:46 24,8 C 25,0 C 24,4 C 58 % 0 lf 1015,9 hPa 0,0 l/m 0 min 0 min 185 W/m 6,3 km/h (2 Bft) 95,74 %
25.08.2017 16:48 24,7 C 25,6 C 24,4 C 58 % 0 lf 1015,9 hPa 0,0 l/m 0 min 0 min 225 W/m 10,5 km/h (2 Bft) 97,83 %
25.08.2017 16:50 24,7 C 25,6 C 24,4 C 58 % 0 lf 1015,9 hPa 0,0 l/m 0 min 0 min 234 W/m 10,5 km/h (2 Bft) 97,87 %
25.08.2017 16:52 24,7 C 25,6 C 24,4 C 58 % 0 lf 1015,9 hPa 0,0 l/m 0 min 0 min 216 W/m 10,5 km/h (2 Bft) 97,87 %
25.08.2017 16:54 24,7 C 25,0 C 24,4 C 58 % 0 lf 1016,0 hPa 0,0 l/m 0 min 0 min 197 W/m 16,7 km/h (3 Bft) 97,87 %
25.08.2017 16:56 24,7 C 25,0 C 24,4 C 58 % 0 lf 1016,0 hPa 0,0 l/m 0 min 0 min 192 W/m 18,8 km/h (3 Bft) 93,62 %
25.08.2017 16:58 24,6 C 25,0 C 24,4 C 58 % 0 lf 1016,0 hPa 0,0 l/m 0 min 0 min 207 W/m 10,5 km/h (2 Bft) 95,74 %
25.08.2017 17:00 24,6 C 25,0 C 25,0 C 58 % 0 lf 1015,8 hPa 0,0 l/m 0 min 0 min 232 W/m 12,6 km/h (3 Bft) 95,65 %
25.08.2017 17:02 24,6 C 25,6 C 25,0 C 58 % 0 lf 1015,8 hPa 0,0 l/m 0 min 0 min 235 W/m 14,6 km/h (3 Bft) 97,87 %
25.08.2017 17:04 24,6 C 25,6 C 25,0 C 59 % 0 lf 1015,8 hPa 0,0 l/m 0 min 0 min 243 W/m 12,6 km/h (3 Bft) 95,74 %
25.08.2017 17:06 24,6 C 26,1 C 25,0 C 58 % 0 lf 1015,8 hPa 0,0 l/m 2 min 0 min 259 W/m 12,6 km/h (3 Bft) 97,87 %
25.08.2017 17:08 24,6 C 26,1 C 25,0 C 59 % 0 lf 1015,7 hPa 0,0 l/m 2 min 0 min 286 W/m 10,5 km/h (2 Bft) 97,87 %
25.08.2017 17:10 24,6 C 26,1 C 25,0 C 58 % 0 lf 1015,6 hPa 0,0 l/m 2 min 0 min 302 W/m 10,5 km/h (2 Bft) 97,83 %
25.08.2017 17:12 24,6 C 26,1 C 25,0 C 58 % 0 lf 1015,5 hPa 0,0 l/m 2 min 0 min 283 W/m 20,9 km/h (4 Bft) 91,49 %
25.08.2017 17:14 24,6 C 26,1 C 25,0 C 59 % 0 lf 1015,5 hPa 0,0 l/m 2 min 0 min 277 W/m 14,6 km/h (3 Bft) 93,62 %
25.08.2017 17:16 24,7 C 26,1 C 25,0 C 58 % 0 lf 1015,5 hPa 0,0 l/m 2 min 0 min 313 W/m 6,3 km/h (2 Bft) 95,74 %
25.08.2017 17:18 24,7 C 26,1 C 25,6 C 58 % 0 lf 1015,4 hPa 0,0 l/m 2 min 0 min 303 W/m 8,4 km/h (2 Bft) 97,87 %
25.08.2017 17:20 24,7 C 26,1 C 25,6 C 59 % 0 lf 1015,4 hPa 0,0 l/m 2 min 0 min 306 W/m 12,6 km/h (3 Bft) 97,87 %
25.08.2017 17:22 24,7 C 26,1 C 25,6 C 59 % 0 lf 1015,3 hPa 0,0 l/m 2 min 0 min 312 W/m 10,5 km/h (2 Bft) 97,83 %
25.08.2017 17:24 24,7 C 26,1 C 25,0 C 59 % 0 lf 1015,3 hPa 0,0 l/m 2 min 0 min 291 W/m 14,6 km/h (3 Bft) 97,87 %
25.08.2017 17:26 24,7 C 26,1 C 24,4 C 59 % 0 lf 1015,2 hPa 0,0 l/m 2 min 0 min 271 W/m 12,6 km/h (3 Bft) 93,62 %
25.08.2017 17:28 24,7 C 26,1 C 24,4 C 59 % 0 lf 1015,3 hPa 0,0 l/m 2 min 0 min 275 W/m 10,5 km/h (2 Bft) 97,87 %
25.08.2017 17:30 24,7 C 26,1 C 24,4 C 60 % 0 lf 1015,3 hPa 0,0 l/m 2 min 0 min 277 W/m 10,5 km/h (2 Bft) 97,87 %
25.08.2017 17:32 24,7 C 26,1 C 24,4 C 60 % 0 lf 1015,2 hPa 0,0 l/m 2 min 0 min 277 W/m 10,5 km/h (2 Bft) 95,74 %
25.08.2017 17:34 24,7 C 26,1 C 24,4 C 59 % 0 lf 1015,2 hPa 0,0 l/m 2 min 0 min 240 W/m 10,5 km/h (2 Bft) 97,83 %
25.08.2017 17:36 24,7 C 26,1 C 24,4 C 59 % 0 lf 1015,3 hPa 0,0 l/m 0 min 0 min 213 W/m 20,9 km/h (4 Bft) 97,87 %
25.08.2017 17:38 24,7 C 26,1 C 24,4 C 60 % 0 lf 1015,3 hPa 0,0 l/m 0 min 0 min 200 W/m 12,6 km/h (3 Bft) 95,74 %
25.08.2017 17:40 24,7 C 25,6 C 23,9 C 60 % 0 lf 1015,2 hPa 0,0 l/m 0 min 0 min 190 W/m 16,7 km/h (3 Bft) 97,87 %
25.08.2017 17:42 24,7 C 25,6 C 24,4 C 60 % 0 lf 1015,2 hPa 0,0 l/m 0 min 0 min 178 W/m 14,6 km/h (3 Bft) 97,87 %
25.08.2017 17:44 24,7 C 25,6 C 23,9 C 59 % 0 lf 1015,2 hPa 0,0 l/m 0 min 0 min 163 W/m 10,5 km/h (2 Bft) 97,87 %
25.08.2017 17:46 24,7 C 25,0 C 24,4 C 60 % 0 lf 1015,2 hPa 0,0 l/m 0 min 0 min 152 W/m 12,6 km/h (3 Bft) 97,83 %
25.08.2017 17:48 24,6 C 25,0 C 23,9 C 60 % 0 lf 1015,2 hPa 0,0 l/m 0 min 0 min 136 W/m 14,6 km/h (3 Bft) 95,74 %
25.08.2017 17:50 24,6 C 25,0 C 23,9 C 60 % 0 lf 1015,2 hPa 0,0 l/m 0 min 0 min 124 W/m 16,7 km/h (3 Bft) 95,74 %
25.08.2017 17:52 24,6 C 25,0 C 23,9 C 60 % 0 lf 1015,2 hPa 0,0 l/m 0 min 0 min 122 W/m 12,6 km/h (3 Bft) 97,87 %
25.08.2017 17:54 24,6 C 25,0 C 23,9 C 61 % 0 lf 1015,2 hPa 0,0 l/m 0 min 0 min 121 W/m 8,4 km/h (2 Bft) 95,74 %
25.08.2017 17:56 24,5 C 24,4 C 23,9 C 60 % 0 lf 1015,2 hPa 0,0 l/m 0 min 0 min 113 W/m 10,5 km/h (2 Bft) 95,74 %
25.08.2017 17:58 24,5 C 24,4 C 23,3 C 60 % 0 lf 1015,2 hPa 0,0 l/m 0 min 0 min 116 W/m 16,7 km/h (3 Bft) 95,65 %
25.08.2017 18:00 24,4 C 24,4 C 23,3 C 60 % 0 lf 1015,2 hPa 0,0 l/m 0 min 0 min 130 W/m 10,5 km/h (2 Bft) 95,74 %
25.08.2017 18:02 24,4 C 24,4 C 23,3 C 60 % 0 lf 1015,1 hPa 0,0 l/m 0 min 0 min 142 W/m 12,6 km/h (3 Bft) 95,74 %
25.08.2017 18:04 24,4 C 25,0 C 23,3 C 61 % 0 lf 1015,1 hPa 0,0 l/m 0 min 0 min 154 W/m 10,5 km/h (2 Bft) 97,87 %
25.08.2017 18:08 24,3 C 25,0 C 23,9 C 61 % 0 lf 1015,1 hPa 0,0 l/m 0 min 0 min 166 W/m 16,7 km/h (3 Bft) 93,62 %
25.08.2017 18:10 24,3 C 25,0 C 23,9 C 61 % 0 lf 1015,1 hPa 0,0 l/m 0 min 0 min 163 W/m 14,6 km/h (3 Bft) 91,30 %
25.08.2017 18:12 24,3 C 25,0 C 23,9 C 62 % 0 lf 1015,1 hPa 0,0 l/m 0 min 0 min 164 W/m 14,6 km/h (3 Bft) 91,49 %
25.08.2017 18:14 24,3 C 25,0 C 23,9 C 61 % 0 lf 1015,0 hPa 0,0 l/m 0 min 0 min 165 W/m 8,4 km/h (2 Bft) 91,49 %
25.08.2017 18:16 24,3 C 25,0 C 23,9 C 61 % 0 lf 1015,0 hPa 0,0 l/m 0 min 0 min 163 W/m 8,4 km/h (2 Bft) 93,62 %
25.08.2017 18:18 24,3 C 25,0 C 23,3 C 61 % 0 lf 1015,0 hPa 0,0 l/m 0 min 0 min 161 W/m 14,6 km/h (3 Bft) 91,49 %
25.08.2017 18:20 24,2 C 25,0 C 23,9 C 61 % 0 lf 1015,1 hPa 0,0 l/m 0 min 0 min 162 W/m 10,5 km/h (2 Bft) 94,23 %
25.08.2017 18:22 24,2 C 24,4 C 23,9 C 61 % 0 lf 1015,1 hPa 0,0 l/m 0 min 0 min 160 W/m 10,5 km/h (2 Bft) 92,68 %
25.08.2017 18:24 24,2 C 24,4 C 23,9 C 61 % 0 lf 1015,1 hPa 0,0 l/m 0 min 0 min 155 W/m 10,5 km/h (2 Bft) 93,62 %
25.08.2017 18:26 24,2 C 24,4 C 23,9 C 61 % 0 lf 1015,1 hPa 0,0 l/m 0 min 0 min 151 W/m 12,6 km/h (3 Bft) 93,62 %
25.08.2017 18:28 24,2 C 24,4 C 23,9 C 61 % 0 lf 1015,1 hPa 0,0 l/m 0 min 0 min 143 W/m 14,6 km/h (3 Bft) 95,74 %
25.08.2017 18:30 24,2 C 24,4 C 23,9 C 61 % 0 lf 1015,0 hPa 0,0 l/m 0 min 0 min 137 W/m 8,4 km/h (2 Bft) 95,74 %
25.08.2017 18:32 24,2 C 24,4 C 23,9 C 61 % 0 lf 1015,0 hPa 0,0 l/m 0 min 0 min 139 W/m 14,6 km/h (3 Bft) 91,49 %
25.08.2017 18:34 24,2 C 24,4 C 23,3 C 61 % 0 lf 1015,0 hPa 0,0 l/m 0 min 0 min 138 W/m 14,6 km/h (3 Bft) 93,48 %
25.08.2017 18:36 24,2 C 24,4 C 23,3 C 61 % 0 lf 1015,0 hPa 0,0 l/m 0 min 0 min 136 W/m 8,4 km/h (2 Bft) 95,74 %
25.08.2017 18:38 24,2 C 24,4 C 23,3 C 61 % 0 lf 1015,0 hPa 0,0 l/m 0 min 0 min 134 W/m 12,6 km/h (3 Bft) 93,62 %
25.08.2017 18:40 24,2 C 24,4 C 22,8 C 61 % 0 lf 1015,0 hPa 0,0 l/m 0 min 0 min 135 W/m 14,6 km/h (3 Bft) 95,74 %
25.08.2017 18:42 24,2 C 23,9 C 22,8 C 61 % 0 lf 1014,9 hPa 0,0 l/m 0 min 0 min 135 W/m 20,9 km/h (4 Bft) 95,74 %
25.08.2017 18:44 24,1 C 23,9 C 22,8 C 62 % 0 lf 1014,9 hPa 0,0 l/m 0 min 0 min 133 W/m 14,6 km/h (3 Bft) 95,65 %
25.08.2017 18:46 24,1 C 23,9 C 22,8 C 61 % 0 lf 1014,9 hPa 0,0 l/m 0 min 0 min 128 W/m 16,7 km/h (3 Bft) 97,87 %
25.08.2017 18:48 24,1 C 23,9 C 22,8 C 62 % 0 lf 1014,8 hPa 0,0 l/m 0 min 0 min 124 W/m 16,7 km/h (3 Bft) 95,74 %
25.08.2017 18:50 24,0 C 23,9 C 22,8 C 62 % 0 lf 1014,8 hPa 0,0 l/m 0 min 0 min 122 W/m 18,8 km/h (3 Bft) 95,74 %
25.08.2017 18:52 24,0 C 23,9 C 22,8 C 62 % 0 lf 1014,8 hPa 0,0 l/m 0 min 0 min 121 W/m 12,6 km/h (3 Bft) 98,21 %
25.08.2017 18:54 23,9 C 23,9 C 22,8 C 62 % 0 lf 1014,9 hPa 0,0 l/m 2 min 0 min 125 W/m 10,5 km/h (2 Bft) 95,65 %
25.08.2017 18:56 23,9 C 23,9 C 22,8 C 62 % 0 lf 1014,8 hPa 0,0 l/m 2 min 0 min 125 W/m 18,8 km/h (3 Bft) 95,74 %
25.08.2017 18:58 23,9 C 23,9 C 22,8 C 62 % 0 lf 1014,9 hPa 0,0 l/m 0 min 0 min 118 W/m 16,7 km/h (3 Bft) 95,74 %
25.08.2017 19:00 23,8 C 23,9 C 22,2 C 62 % 0 lf 1014,9 hPa 0,0 l/m 0 min 0 min 116 W/m 14,6 km/h (3 Bft) 97,87 %
25.08.2017 19:02 23,8 C 23,9 C 22,2 C 62 % 0 lf 1014,9 hPa 0,0 l/m 2 min 0 min 116 W/m 18,8 km/h (3 Bft) 100,00 %
25.08.2017 19:04 23,8 C 23,9 C 22,2 C 62 % 0 lf 1014,9 hPa 0,0 l/m 0 min 0 min 111 W/m 14,6 km/h (3 Bft) 100,00 %
25.08.2017 19:06 23,8 C 23,3 C 22,2 C 62 % 0 lf 1014,9 hPa 0,0 l/m 0 min 0 min 104 W/m 16,7 km/h (3 Bft) 100,00 %
25.08.2017 19:08 23,7 C 23,3 C 22,2 C 62 % 0 lf 1014,9 hPa 0,0 l/m 0 min 0 min 98 W/m 14,6 km/h (3 Bft) 100,00 %
25.08.2017 19:10 23,7 C 23,3 C 22,2 C 62 % 0 lf 1014,8 hPa 0,0 l/m 0 min 0 min 89 W/m 14,6 km/h (3 Bft) 97,87 %
25.08.2017 19:12 23,7 C 23,3 C 22,2 C 63 % 0 lf 1014,8 hPa 0,0 l/m 0 min 0 min 81 W/m 14,6 km/h (3 Bft) 97,87 %
25.08.2017 19:14 23,6 C 23,3 C 22,2 C 63 % 0 lf 1014,8 hPa 0,0 l/m 0 min 0 min 73 W/m 16,7 km/h (3 Bft) 97,87 %
25.08.2017 19:16 23,6 C 23,3 C 22,2 C 63 % 0 lf 1014,8 hPa 0,0 l/m 0 min 0 min 66 W/m 12,6 km/h (3 Bft) 97,83 %
25.08.2017 19:18 23,6 C 23,3 C 22,2 C 63 % 0 lf 1014,8 hPa 0,0 l/m 0 min 0 min 63 W/m 10,5 km/h (2 Bft) 97,87 %
25.08.2017 19:20 23,5 C 23,3 C 22,2 C 63 % 0 lf 1014,9 hPa 0,0 l/m 0 min 0 min 62 W/m 12,6 km/h (3 Bft) 97,87 %
25.08.2017 19:22 23,5 C 23,3 C 22,2 C 63 % 0 lf 1014,9 hPa 0,0 l/m 0 min 0 min 58 W/m 8,4 km/h (2 Bft) 97,87 %
25.08.2017 19:24 23,4 C 22,8 C 21,7 C 63 % 0 lf 1014,9 hPa 0,0 l/m 0 min 0 min 53 W/m 10,5 km/h (2 Bft) 97,87 %
25.08.2017 19:26 23,4 C 22,8 C 21,7 C 64 % 0 lf 1014,9 hPa 0,0 l/m 0 min 0 min 47 W/m 8,4 km/h (2 Bft) 97,87 %
25.08.2017 19:28 23,4 C 22,8 C 21,7 C 64 % 0 lf 1014,9 hPa 0,0 l/m 0 min 0 min 42 W/m 12,6 km/h (3 Bft) 93,48 %
25.08.2017 19:30 23,4 C 22,8 C 21,7 C 64 % 0 lf 1015,0 hPa 0,0 l/m 0 min 0 min 39 W/m 4,2 km/h (1 Bft) 97,87 %
25.08.2017 19:32 23,3 C 22,8 C 21,7 C 64 % 0 lf 1014,9 hPa 0,0 l/m 0 min 0 min 40 W/m 10,5 km/h (2 Bft) 97,87 %
25.08.2017 19:34 23,3 C 22,8 C 21,7 C 64 % 0 lf 1014,9 hPa 0,0 l/m 0 min 0 min 42 W/m 8,4 km/h (2 Bft) 97,87 %
25.08.2017 19:36 23,3 C 22,8 C 21,7 C 64 % 0 lf 1015,0 hPa 0,0 l/m 0 min 0 min 41 W/m 10,5 km/h (2 Bft) 95,74 %
25.08.2017 19:38 23,3 C 22,8 C 21,7 C 64 % 0 lf 1015,0 hPa 0,0 l/m 0 min 0 min 42 W/m 14,6 km/h (3 Bft) 97,87 %
25.08.2017 19:40 23,3 C 22,8 C 21,1 C 64 % 0 lf 1015,0 hPa 0,0 l/m 0 min 0 min 35 W/m 12,6 km/h (3 Bft) 97,83 %
25.08.2017 19:42 23,2 C 22,8 C 21,1 C 64 % 0 lf 1015,0 hPa 0,0 l/m 0 min 0 min 33 W/m 14,6 km/h (3 Bft) 97,87 %
25.08.2017 19:44 23,2 C 22,8 C 21,1 C 64 % 0 lf 1015,0 hPa 0,0 l/m 0 min 0 min 34 W/m 10,5 km/h (2 Bft) 97,87 %
25.08.2017 19:46 23,2 C 22,8 C 21,1 C 64 % 0 lf 1015,0 hPa 0,0 l/m 0 min 0 min 31 W/m 14,6 km/h (3 Bft) 93,62 %
25.08.2017 19:48 23,1 C 22,8 C 21,1 C 64 % 0 lf 1015,1 hPa 0,0 l/m 0 min 0 min 25 W/m 6,3 km/h (2 Bft) 97,87 %
25.08.2017 19:50 23,1 C 22,8 C 21,1 C 65 % 0 lf 1015,0 hPa 0,0 l/m 0 min 0 min 25 W/m 6,3 km/h (2 Bft) 95,74 %
25.08.2017 19:52 23,1 C 22,8 C 21,1 C 65 % 0 lf 1015,1 hPa 0,0 l/m 0 min 0 min 22 W/m 10,5 km/h (2 Bft) 95,65 %
25.08.2017 19:54 23,1 C 22,2 C 21,1 C 65 % 0 lf 1015,1 hPa 0,0 l/m 0 min 0 min 16 W/m 10,5 km/h (2 Bft) 97,87 %
25.08.2017 19:56 23,0 C 22,2 C 21,1 C 65 % 0 lf 1015,1 hPa 0,0 l/m 0 min 0 min 17 W/m 8,4 km/h (2 Bft) 95,74 %
25.08.2017 19:58 23,0 C 22,2 C 21,1 C 65 % 0 lf 1015,1 hPa 0,0 l/m 0 min 0 min 15 W/m 8,4 km/h (2 Bft) 93,62 %
25.08.2017 20:00 23,0 C 22,2 C 21,1 C 65 % 0 lf 1015,1 hPa 0,0 l/m 0 min 0 min 15 W/m 6,3 km/h (2 Bft) 97,87 %
25.08.2017 20:02 23,0 C 22,2 C 21,1 C 65 % 0 lf 1015,1 hPa 0,0 l/m 0 min 0 min 22 W/m 6,3 km/h (2 Bft) 93,62 %
25.08.2017 20:04 22,9 C 22,2 C 21,1 C 65 % 0 lf 1015,1 hPa 0,0 l/m 0 min 0 min 14 W/m 6,3 km/h (2 Bft) 100,00 %
25.08.2017 20:06 22,9 C 22,2 C 21,1 C 65 % 0 lf 1015,1 hPa 0,0 l/m 0 min 0 min 13 W/m 10,5 km/h (2 Bft) 100,00 %
25.08.2017 20:08 22,9 C 22,2 C 21,1 C 65 % 0 lf 1015,1 hPa 0,0 l/m 0 min 0 min 14 W/m 10,5 km/h (2 Bft) 97,87 %
25.08.2017 20:10 22,9 C 22,2 C 21,1 C 65 % 0 lf 1015,1 hPa 0,0 l/m 0 min 0 min 12 W/m 6,3 km/h (2 Bft) 95,74 %
25.08.2017 20:12 22,9 C 22,2 C 21,1 C 65 % 0 lf 1015,1 hPa 0,0 l/m 0 min 0 min 12 W/m 8,4 km/h (2 Bft) 95,74 %
25.08.2017 20:14 22,9 C 22,2 C 21,1 C 65 % 0 lf 1015,0 hPa 0,0 l/m 0 min 0 min 12 W/m 8,4 km/h (2 Bft) 97,83 %
25.08.2017 20:16 22,8 C 22,2 C 21,1 C 65 % 0 lf 1015,0 hPa 0,0 l/m 0 min 0 min 11 W/m 8,4 km/h (2 Bft) 97,87 %
25.08.2017 20:18 22,8 C 22,2 C 21,1 C 65 % 0 lf 1015,0 hPa 0,0 l/m 0 min 0 min 13 W/m 10,5 km/h (2 Bft) 93,62 %
25.08.2017 20:20 22,8 C 22,2 C 21,1 C 65 % 0 lf 1015,0 hPa 0,0 l/m 0 min 0 min 11 W/m 10,5 km/h (2 Bft) 97,87 %
25.08.2017 20:22 22,8 C 22,2 C 21,1 C 66 % 0 lf 1015,0 hPa 0,0 l/m 0 min 0 min 11 W/m 8,4 km/h (2 Bft) 95,74 %
25.08.2017 20:24 22,8 C 22,2 C 21,1 C 66 % 0 lf 1015,0 hPa 0,0 l/m 0 min 0 min 12 W/m 6,3 km/h (2 Bft) 97,87 %
25.08.2017 20:26 22,8 C 22,2 C 21,1 C 66 % 0 lf 1015,0 hPa 0,0 l/m 0 min 0 min 10 W/m 8,4 km/h (2 Bft) 97,83 %
25.08.2017 20:28 22,7 C 22,2 C 21,1 C 66 % 0 lf 1015,1 hPa 0,0 l/m 0 min 0 min 15 W/m 6,3 km/h (2 Bft) 97,87 %
25.08.2017 20:30 22,7 C 22,2 C 20,6 C 66 % 0 lf 1015,0 hPa 0,0 l/m 0 min 0 min 10 W/m 8,4 km/h (2 Bft) 97,87 %
25.08.2017 20:32 22,7 C 22,2 C 20,6 C 66 % 0 lf 1014,9 hPa 0,0 l/m 0 min 0 min 8 W/m 6,3 km/h (2 Bft) 97,87 %
25.08.2017 20:34 22,7 C 21,7 C 20,6 C 66 % 0 lf 1014,9 hPa 0,0 l/m 0 min 0 min 10 W/m 6,3 km/h (2 Bft) 95,74 %
25.08.2017 20:36 22,7 C 21,7 C 20,6 C 66 % 0 lf 1014,9 hPa 0,0 l/m 0 min 0 min 7 W/m 6,3 km/h (2 Bft) 95,74 %
25.08.2017 20:38 22,7 C 21,7 C 20,6 C 67 % 0 lf 1015,0 hPa 0,0 l/m 0 min 0 min 9 W/m 6,3 km/h (2 Bft) 95,65 %
25.08.2017 20:40 22,6 C 21,7 C 20,6 C 67 % 0 lf 1014,9 hPa 0,0 l/m 0 min 0 min 10 W/m 8,4 km/h (2 Bft) 95,74 %
25.08.2017 20:42 22,6 C 21,7 C 20,6 C 67 % 0 lf 1014,9 hPa 0,0 l/m 0 min 0 min 9 W/m 8,4 km/h (2 Bft) 95,74 %
25.08.2017 20:44 22,6 C 21,7 C 20,6 C 67 % 0 lf 1014,9 hPa 0,0 l/m 0 min 0 min 29 W/m 8,4 km/h (2 Bft) 97,87 %
25.08.2017 20:46 22,6 C 21,7 C 20,6 C 67 % 0 lf 1014,9 hPa 0,0 l/m 0 min 0 min 11 W/m 6,3 km/h (2 Bft) 100,00 %
25.08.2017 20:48 22,6 C 21,7 C 20,6 C 67 % 0 lf 1014,9 hPa 0,0 l/m 0 min 0 min 9 W/m 8,4 km/h (2 Bft) 100,00 %
25.08.2017 20:50 22,5 C 21,7 C 20,6 C 67 % 0 lf 1014,9 hPa 0,0 l/m 0 min 0 min 5 W/m 10,5 km/h (2 Bft) 95,65 %
25.08.2017 20:52 22,5 C 21,7 C 20,6 C 67 % 0 lf 1015,0 hPa 0,0 l/m 0 min 0 min 5 W/m 4,2 km/h (1 Bft) 97,87 %
25.08.2017 20:54 22,4 C 21,7 C 20,6 C 67 % 0 lf 1015,0 hPa 0,0 l/m 0 min 0 min 5 W/m 4,2 km/h (1 Bft) 97,87 %
25.08.2017 20:56 22,4 C 21,7 C 20,6 C 67 % 0 lf 1015,1 hPa 0,0 l/m 0 min 0 min 5 W/m 6,3 km/h (2 Bft) 97,87 %
25.08.2017 20:58 22,4 C 21,7 C 20,6 C 67 % 0 lf 1015,1 hPa 0,0 l/m 0 min 0 min 5 W/m 8,4 km/h (2 Bft) 97,87 %
25.08.2017 21:00 22,4 C 21,7 C 20,6 C 67 % 0 lf 1015,1 hPa 0,0 l/m 0 min 0 min 0 W/m 6,3 km/h (2 Bft) 97,87 %
25.08.2017 21:02 22,4 C 21,7 C 20,6 C 67 % 0 lf 1015,1 hPa 0,0 l/m 0 min 0 min 0 W/m 6,3 km/h (2 Bft) 95,65 %
25.08.2017 21:04 22,4 C 21,7 C 20,6 C 67 % 0 lf 1015,1 hPa 0,0 l/m 0 min 0 min 0 W/m 8,4 km/h (2 Bft) 97,87 %
25.08.2017 21:06 22,3 C 21,7 C 20,6 C 67 % 0 lf 1015,1 hPa 0,0 l/m 0 min 0 min 0 W/m 6,3 km/h (2 Bft) 97,87 %
25.08.2017 21:08 22,3 C 21,7 C 20,6 C 67 % 0 lf 1015,1 hPa 0,0 l/m 0 min 0 min 0 W/m 10,5 km/h (2 Bft) 97,87 %
25.08.2017 21:10 22,3 C 21,7 C 20,6 C 67 % 0 lf 1015,1 hPa 0,0 l/m 0 min 0 min 0 W/m 6,3 km/h (2 Bft) 97,87 %
25.08.2017 21:12 22,3 C 21,7 C 20,0 C 67 % 0 lf 1015,1 hPa 0,0 l/m 0 min 0 min 0 W/m 6,3 km/h (2 Bft) 93,62 %
25.08.2017 21:14 22,3 C 21,7 C 20,0 C 67 % 0 lf 1015,1 hPa 0,0 l/m 0 min 0 min 5 W/m 8,4 km/h (2 Bft) 97,83 %
25.08.2017 21:16 22,2 C 21,7 C 20,0 C 67 % 0 lf 1015,0 hPa 0,0 l/m 0 min 0 min 5 W/m 8,4 km/h (2 Bft) 97,87 %
25.08.2017 21:18 22,2 C 21,7 C 20,0 C 67 % 0 lf 1015,0 hPa 0,0 l/m 0 min 0 min 5 W/m 6,3 km/h (2 Bft) 95,74 %
25.08.2017 21:20 22,2 C 21,7 C 20,0 C 67 % 0 lf 1015,1 hPa 0,0 l/m 0 min 0 min 5 W/m 10,5 km/h (2 Bft) 93,62 %
25.08.2017 21:22 22,2 C 21,7 C 20,0 C 67 % 0 lf 1015,1 hPa 0,0 l/m 0 min 0 min 5 W/m 8,4 km/h (2 Bft) 95,74 %
25.08.2017 21:24 22,2 C 21,1 C 20,0 C 67 % 0 lf 1015,1 hPa 0,0 l/m 0 min 0 min 5 W/m 10,5 km/h (2 Bft) 93,48 %
25.08.2017 21:26 22,1 C 21,1 C 20,0 C 67 % 0 lf 1015,0 hPa 0,0 l/m 0 min 0 min 5 W/m 8,4 km/h (2 Bft) 95,74 %
25.08.2017 21:28 22,1 C 21,1 C 20,0 C 67 % 0 lf 1015,1 hPa 0,0 l/m 0 min 0 min 5 W/m 10,5 km/h (2 Bft) 95,74 %
25.08.2017 21:30 22,1 C 21,7 C 20,0 C 67 % 0 lf 1015,1 hPa 0,0 l/m 0 min 0 min 0 W/m 8,4 km/h (2 Bft) 95,74 %
25.08.2017 21:32 22,1 C 21,7 C 20,0 C 67 % 0 lf 1015,1 hPa 0,0 l/m 0 min 0 min 5 W/m 6,3 km/h (2 Bft) 93,62 %
25.08.2017 21:34 22,1 C 21,1 C 20,0 C 67 % 0 lf 1015,1 hPa 0,0 l/m 0 min 0 min 5 W/m 8,4 km/h (2 Bft) 95,74 %
25.08.2017 21:36 22,0 C 21,1 C 20,0 C 67 % 0 lf 1015,2 hPa 0,0 l/m 0 min 0 min 5 W/m 12,6 km/h (3 Bft) 95,65 %
25.08.2017 21:38 22,0 C 21,1 C 20,0 C 67 % 0 lf 1015,1 hPa 0,0 l/m 0 min 0 min 5 W/m 8,4 km/h (2 Bft) 93,62 %
25.08.2017 21:40 22,0 C 21,1 C 20,0 C 67 % 0 lf 1015,1 hPa 0,0 l/m 0 min 0 min 5 W/m 6,3 km/h (2 Bft) 95,74 %
25.08.2017 21:42 22,0 C 21,1 C 20,0 C 67 % 0 lf 1015,1 hPa 0,0 l/m 0 min 0 min 5 W/m 10,5 km/h (2 Bft) 95,74 %
25.08.2017 21:44 22,0 C 21,1 C 20,0 C 67 % 0 lf 1015,0 hPa 0,0 l/m 0 min 0 min 0 W/m 8,4 km/h (2 Bft) 91,49 %
25.08.2017 21:46 21,9 C 21,1 C 20,0 C 67 % 0 lf 1015,0 hPa 0,0 l/m 0 min 0 min 5 W/m 10,5 km/h (2 Bft) 95,74 %
25.08.2017 21:48 21,9 C 21,1 C 19,4 C 67 % 0 lf 1015,0 hPa 0,0 l/m 0 min 0 min 0 W/m 6,3 km/h (2 Bft) 97,83 %
25.08.2017 21:50 21,9 C 21,1 C 19,4 C 67 % 0 lf 1015,0 hPa 0,0 l/m 0 min 0 min 5 W/m 8,4 km/h (2 Bft) 95,74 %
25.08.2017 21:52 21,9 C 21,1 C 19,4 C 67 % 0 lf 1015,1 hPa 0,0 l/m 0 min 0 min 5 W/m 8,4 km/h (2 Bft) 97,87 %
25.08.2017 21:54 21,9 C 20,6 C 19,4 C 67 % 0 lf 1015,1 hPa 0,0 l/m 0 min 0 min 0 W/m 6,3 km/h (2 Bft) 95,74 %
25.08.2017 21:56 21,8 C 20,6 C 19,4 C 67 % 0 lf 1015,1 hPa 0,0 l/m 0 min 0 min 0 W/m 6,3 km/h (2 Bft) 93,62 %
25.08.2017 21:58 21,8 C 20,6 C 19,4 C 67 % 0 lf 1015,0 hPa 0,0 l/m 0 min 0 min 0 W/m 8,4 km/h (2 Bft) 95,74 %
25.08.2017 22:00 21,8 C 20,6 C 19,4 C 67 % 0 lf 1015,0 hPa 0,0 l/m 0 min 0 min 0 W/m 10,5 km/h (2 Bft) 95,65 %
25.08.2017 22:02 21,8 C 20,6 C 19,4 C 67 % 0 lf 1015,0 hPa 0,0 l/m 0 min 0 min 5 W/m 10,5 km/h (2 Bft) 93,62 %
25.08.2017 22:04 21,7 C 20,6 C 19,4 C 67 % 0 lf 1014,9 hPa 0,0 l/m 0 min 0 min 0 W/m 10,5 km/h (2 Bft) 93,62 %
25.08.2017 22:06 21,7 C 20,6 C 18,9 C 68 % 0 lf 1015,0 hPa 0,0 l/m 0 min 0 min 5 W/m 16,7 km/h (3 Bft) 93,62 %
25.08.2017 22:08 21,7 C 20,6 C 18,9 C 68 % 0 lf 1015,0 hPa 0,0 l/m 0 min 0 min 5 W/m 10,5 km/h (2 Bft) 95,74 %
25.08.2017 22:10 21,6 C 20,6 C 18,9 C 68 % 0 lf 1014,9 hPa 0,0 l/m 0 min 0 min 5 W/m 10,5 km/h (2 Bft) 97,87 %
25.08.2017 22:12 21,6 C 20,6 C 18,9 C 68 % 0 lf 1014,9 hPa 0,0 l/m 0 min 0 min 5 W/m 10,5 km/h (2 Bft) 93,48 %
25.08.2017 22:14 21,6 C 20,0 C 18,9 C 68 % 0 lf 1014,9 hPa 0,0 l/m 0 min 0 min 5 W/m 8,4 km/h (2 Bft) 95,74 %
25.08.2017 22:16 21,6 C 20,0 C 18,9 C 68 % 0 lf 1014,9 hPa 0,0 l/m 0 min 0 min 5 W/m 14,6 km/h (3 Bft) 95,74 %
25.08.2017 22:18 21,5 C 20,0 C 18,3 C 68 % 0 lf 1014,9 hPa 0,0 l/m 0 min 0 min 5 W/m 12,6 km/h (3 Bft) 91,49 %
25.08.2017 22:20 21,5 C 20,0 C 18,3 C 68 % 0 lf 1014,9 hPa 0,0 l/m 0 min 0 min 5 W/m 8,4 km/h (2 Bft) 97,87 %
25.08.2017 22:22 21,4 C 20,0 C 18,3 C 68 % 0 lf 1014,9 hPa 0,0 l/m 0 min 0 min 0 W/m 6,3 km/h (2 Bft) 93,62 %
25.08.2017 22:24 21,4 C 20,0 C 18,3 C 68 % 0 lf 1014,9 hPa 0,0 l/m 0 min 0 min 0 W/m 10,5 km/h (2 Bft) 95,65 %
25.08.2017 22:26 21,4 C 20,0 C 18,3 C 69 % 0 lf 1014,7 hPa 0,0 l/m 0 min 0 min 5 W/m 6,3 km/h (2 Bft) 95,74 %
25.08.2017 22:28 21,3 C 20,0 C 18,3 C 69 % 0 lf 1014,7 hPa 0,0 l/m 0 min 0 min 5 W/m 6,3 km/h (2 Bft) 95,74 %
25.08.2017 22:30 21,3 C 20,0 C 18,3 C 69 % 0 lf 1014,8 hPa 0,0 l/m 0 min 0 min 5 W/m 10,5 km/h (2 Bft) 95,74 %
25.08.2017 22:32 21,3 C 20,0 C 18,3 C 69 % 0 lf 1014,7 hPa 0,0 l/m 0 min 0 min 0 W/m 6,3 km/h (2 Bft) 95,74 %
25.08.2017 22:34 21,2 C 20,0 C 17,8 C 69 % 0 lf 1014,8 hPa 0,0 l/m 0 min 0 min 0 W/m 12,6 km/h (3 Bft) 93,62 %
25.08.2017 22:36 21,2 C 20,0 C 17,8 C 69 % 0 lf 1014,8 hPa 0,0 l/m 0 min 0 min 0 W/m 6,3 km/h (2 Bft) 89,13 %
25.08.2017 22:38 21,2 C 20,0 C 18,3 C 69 % 0 lf 1014,8 hPa 0,0 l/m 0 min 0 min 0 W/m 14,6 km/h (3 Bft) 95,74 %
25.08.2017 22:40 21,1 C 20,0 C 18,3 C 69 % 0 lf 1014,7 hPa 0,0 l/m 0 min 0 min 0 W/m 10,5 km/h (2 Bft) 93,62 %
25.08.2017 22:42 21,1 C 20,0 C 17,8 C 69 % 0 lf 1014,8 hPa 0,0 l/m 0 min 0 min 5 W/m 12,6 km/h (3 Bft) 97,87 %
25.08.2017 22:44 21,0 C 20,0 C 17,8 C 69 % 0 lf 1014,8 hPa 0,0 l/m 0 min 0 min 0 W/m 10,5 km/h (2 Bft) 95,74 %
25.08.2017 22:46 21,0 C 20,0 C 17,8 C 69 % 0 lf 1014,8 hPa 0,0 l/m 0 min 0 min 0 W/m 6,3 km/h (2 Bft) 100,00 %
25.08.2017 22:48 21,0 C 20,0 C 17,8 C 69 % 0 lf 1014,9 hPa 0,0 l/m 0 min 0 min 0 W/m 6,3 km/h (2 Bft) 100,00 %
25.08.2017 22:50 20,9 C 20,0 C 17,8 C 70 % 0 lf 1014,9 hPa 0,0 l/m 0 min 0 min 0 W/m 6,3 km/h (2 Bft) 97,87 %
25.08.2017 22:52 20,9 C 20,0 C 17,8 C 70 % 0 lf 1014,9 hPa 0,0 l/m 0 min 0 min 0 W/m 2,1 km/h (1 Bft) 97,87 %
25.08.2017 22:54 20,9 C 19,4 C 17,8 C 70 % 0 lf 1014,8 hPa 0,0 l/m 0 min 0 min 0 W/m 6,3 km/h (2 Bft) 95,74 %
25.08.2017 22:56 20,8 C 19,4 C 17,8 C 70 % 0 lf 1014,8 hPa 0,0 l/m 0 min 0 min 0 W/m 6,3 km/h (2 Bft) 100,00 %
25.08.2017 22:58 20,8 C 19,4 C 17,2 C 70 % 0 lf 1014,8 hPa 0,0 l/m 0 min 0 min 5 W/m 6,3 km/h (2 Bft) 100,00 %
25.08.2017 23:00 20,8 C 18,9 C 17,2 C 70 % 0 lf 1014,8 hPa 0,0 l/m 0 min 0 min 0 W/m 4,2 km/h (1 Bft) 97,83 %
25.08.2017 23:02 20,7 C 18,9 C 17,2 C 70 % 0 lf 1014,8 hPa 0,0 l/m 0 min 0 min 0 W/m 4,2 km/h (1 Bft) 97,87 %
25.08.2017 23:04 20,7 C 18,9 C 17,2 C 70 % 0 lf 1014,8 hPa 0,0 l/m 0 min 0 min 0 W/m 4,2 km/h (1 Bft) 100,00 %
25.08.2017 23:06 20,7 C 18,9 C 17,2 C 70 % 0 lf 1014,8 hPa 0,0 l/m 0 min 0 min 0 W/m 4,2 km/h (1 Bft) 97,87 %
25.08.2017 23:08 20,7 C 18,9 C 17,2 C 70 % 0 lf 1014,8 hPa 0,0 l/m 0 min 0 min 0 W/m 6,3 km/h (2 Bft) 97,87 %
25.08.2017 23:10 20,6 C 18,9 C 16,7 C 70 % 0 lf 1014,8 hPa 0,0 l/m 0 min 0 min 0 W/m 4,2 km/h (1 Bft) 100,00 %
25.08.2017 23:12 20,6 C 18,9 C 16,7 C 70 % 0 lf 1014,8 hPa 0,0 l/m 0 min 0 min 0 W/m 4,2 km/h (1 Bft) 100,00 %
25.08.2017 23:14 20,6 C 18,9 C 16,7 C 70 % 0 lf 1014,8 hPa 0,0 l/m 0 min 0 min 0 W/m 4,2 km/h (1 Bft) 100,00 %
25.08.2017 23:16 20,5 C 18,9 C 16,7 C 70 % 0 lf 1014,8 hPa 0,0 l/m 0 min 0 min 0 W/m 4,2 km/h (1 Bft) 100,00 %
25.08.2017 23:18 20,5 C 18,3 C 16,7 C 70 % 0 lf 1014,9 hPa 0,0 l/m 0 min 0 min 0 W/m 2,1 km/h (1 Bft) 100,00 %
25.08.2017 23:20 20,4 C 18,3 C 16,7 C 71 % 0 lf 1014,9 hPa 0,0 l/m 0 min 0 min 0 W/m 2,1 km/h (1 Bft) 100,00 %
25.08.2017 23:22 20,4 C 18,3 C 16,7 C 71 % 0 lf 1014,8 hPa 0,0 l/m 0 min 0 min 0 W/m 4,2 km/h (1 Bft) 97,83 %
25.08.2017 23:24 20,4 C 18,3 C 16,7 C 71 % 0 lf 1014,9 hPa 0,0 l/m 0 min 0 min 0 W/m 4,2 km/h (1 Bft) 100,00 %
25.08.2017 23:26 20,3 C 18,3 C 16,7 C 71 % 0 lf 1014,9 hPa 0,0 l/m 0 min 0 min 0 W/m 4,2 km/h (1 Bft) 97,87 %
25.08.2017 23:28 20,3 C 18,3 C 16,7 C 71 % 0 lf 1014,8 hPa 0,0 l/m 0 min 0 min 0 W/m 4,2 km/h (1 Bft) 100,00 %
25.08.2017 23:30 20,3 C 18,3 C 16,7 C 72 % 0 lf 1014,8 hPa 0,0 l/m 0 min 0 min 0 W/m 4,2 km/h (1 Bft) 100,00 %
25.08.2017 23:32 20,2 C 18,3 C 16,7 C 72 % 0 lf 1014,8 hPa 0,0 l/m 0 min 0 min 0 W/m 4,2 km/h (1 Bft) 100,00 %
25.08.2017 23:34 20,2 C 18,3 C 16,7 C 72 % 0 lf 1014,8 hPa 0,0 l/m 0 min 0 min 0 W/m 4,2 km/h (1 Bft) 97,83 %
25.08.2017 23:36 20,2 C 18,3 C 16,7 C 72 % 0 lf 1014,8 hPa 0,0 l/m 0 min 0 min 0 W/m 6,3 km/h (2 Bft) 100,00 %
25.08.2017 23:38 20,1 C 18,3 C 17,2 C 73 % 0 lf 1014,7 hPa 0,0 l/m 0 min 0 min 0 W/m 4,2 km/h (1 Bft) 100,00 %
25.08.2017 23:40 20,1 C 18,3 C 17,2 C 73 % 0 lf 1014,8 hPa 0,0 l/m 0 min 0 min 0 W/m 4,2 km/h (1 Bft) 100,00 %
25.08.2017 23:42 20,1 C 18,3 C 17,2 C 73 % 0 lf 1014,7 hPa 0,0 l/m 0 min 0 min 0 W/m 4,2 km/h (1 Bft) 100,00 %
25.08.2017 23:44 20,0 C 18,3 C 17,2 C 73 % 0 lf 1014,8 hPa 0,0 l/m 0 min 0 min 0 W/m 2,1 km/h (1 Bft) 100,00 %
25.08.2017 23:46 19,9 C 18,3 C 17,2 C 73 % 0 lf 1014,7 hPa 0,0 l/m 0 min 0 min 0 W/m 4,2 km/h (1 Bft) 97,83 %
25.08.2017 23:48 19,9 C 18,9 C 17,2 C 73 % 0 lf 1014,7 hPa 0,0 l/m 0 min 0 min 0 W/m 4,2 km/h (1 Bft) 100,00 %
25.08.2017 23:50 19,9 C 18,9 C 17,8 C 74 % 0 lf 1014,7 hPa 0,0 l/m 0 min 0 min 0 W/m 6,3 km/h (2 Bft) 97,87 %
25.08.2017 23:52 19,9 C 18,9 C 17,8 C 74 % 0 lf 1014,7 hPa 0,0 l/m 0 min 0 min 0 W/m 4,2 km/h (1 Bft) 100,00 %
25.08.2017 23:54 19,8 C 18,9 C 17,8 C 74 % 0 lf 1014,7 hPa 0,0 l/m 0 min 0 min 0 W/m 2,1 km/h (1 Bft) 100,00 %
25.08.2017 23:56 19,8 C 18,9 C 17,8 C 74 % 0 lf 1014,8 hPa 0,0 l/m 0 min 0 min 0 W/m 4,2 km/h (1 Bft) 100,00 %
25.08.2017 23:58 19,8 C 18,9 C 17,2 C 74 % 0 lf 1014,8 hPa 0,0 l/m 0 min 0 min 0 W/m 2,1 km/h (1 Bft) 100,00 %
_ Min-Zeit 06:56 05:30 03:02 14:46 00:00 22:26 - - - - 00:00 00:12
Minimum _ 13,3 C 12,2 C 11,7 C 56 % 0 lf 1014,7 hPa - - - - 0,0 km/h (0 Bft) 87,23 %
_ Max-Zeit 15:16 12:10 12:00 08:20 03:02 08:54 00:00 11:05 00:00 12:20 13:35 00:02
Maximum _ 25,6 C 33,9 C 30,0 C 96 % 4 lf 1018,2 hPa 0,0 l/m 5 min 0 min 998 W/m 20,9 km/h
O (4 Bft)
100,00 %
Durchschnitt _ 19,7 C 21,0 C 19,2 C 75 % 1 lf 1016,7 hPa #0,0 l/m #8:00 h #0 min. 322 W/m 6,8 km/h (2 Bft) 96,73 %
© 2017 W. Hausmann